Wetterdaten: Samstag, 22.02.2020
Datum Zeit Temp. Aussen Temp. o. S. Temp +5cm Feuchte Auss Luftdruck Regen Sonnenschein Regendauer Solar Windben Empfang
22.02.2020 00:00 7,6 C 6,7 C 6,1 C 78 % 1024,3 hPa 0,0 l/m 0 min 0 min 0 W/m 25,7 km/h (4 Bft) 97,87 %
22.02.2020 00:02 7,6 C 6,7 C 6,1 C 78 % 1024,3 hPa 0,0 l/m 0 min 0 min 0 W/m 22,5 km/h (4 Bft) 94,87 %
22.02.2020 00:04 7,6 C 6,7 C 6,1 C 78 % 1024,4 hPa 0,0 l/m 0 min 0 min 0 W/m 25,7 km/h (4 Bft) 97,87 %
22.02.2020 00:07 7,5 C 6,7 C 6,1 C 78 % 1024,3 hPa 0,0 l/m 0 min 0 min 0 W/m 32,2 km/h (5 Bft) 97,87 %
22.02.2020 00:08 7,5 C 6,7 C 6,1 C 78 % 1024,3 hPa 0,0 l/m 0 min 0 min 0 W/m 32,2 km/h (5 Bft) 97,03 %
22.02.2020 00:10 7,5 C 6,7 C 6,1 C 78 % 1024,3 hPa 0,0 l/m 0 min 0 min 0 W/m 22,5 km/h (4 Bft) 97,87 %
22.02.2020 00:12 7,5 C 6,7 C 6,1 C 78 % 1024,4 hPa 0,0 l/m 0 min 0 min 0 W/m 32,2 km/h (5 Bft) 97,87 %
22.02.2020 00:14 7,5 C 6,7 C 6,1 C 78 % 1024,4 hPa 0,0 l/m 0 min 0 min 0 W/m 22,5 km/h (4 Bft) 97,83 %
22.02.2020 00:16 7,5 C 6,7 C 6,1 C 79 % 1024,4 hPa 0,0 l/m 0 min 0 min 0 W/m 22,5 km/h (4 Bft) 97,87 %
22.02.2020 00:18 7,5 C 6,7 C 6,1 C 79 % 1024,5 hPa 0,0 l/m 0 min 0 min 0 W/m 22,5 km/h (4 Bft) 97,87 %
22.02.2020 00:20 7,5 C 6,7 C 6,1 C 79 % 1024,5 hPa 0,0 l/m 0 min 0 min 0 W/m 29,0 km/h (5 Bft) 95,74 %
22.02.2020 00:22 7,5 C 6,7 C 6,1 C 79 % 1024,5 hPa 0,0 l/m 0 min 0 min 0 W/m 19,3 km/h (3 Bft) 55,32 %
22.02.2020 00:24 7,5 C 6,7 C 6,1 C 79 % 1024,6 hPa 0,0 l/m 0 min 0 min 0 W/m 29,0 km/h (5 Bft) 100,00 %
22.02.2020 00:26 7,5 C 6,7 C 6,1 C 79 % 1024,6 hPa 0,0 l/m 0 min 0 min 0 W/m 16,1 km/h (3 Bft) 100,00 %
22.02.2020 00:28 7,5 C 6,7 C 6,1 C 79 % 1024,6 hPa 0,0 l/m 0 min 0 min 0 W/m 35,4 km/h (5 Bft) 100,00 %
22.02.2020 00:30 7,5 C 6,7 C 6,1 C 79 % 1024,5 hPa 0,0 l/m 0 min 0 min 0 W/m 25,7 km/h (4 Bft) 100,00 %
22.02.2020 00:32 7,5 C 6,7 C 6,1 C 79 % 1024,5 hPa 0,0 l/m 0 min 0 min 0 W/m 35,4 km/h (5 Bft) 97,87 %
22.02.2020 00:34 7,5 C 6,7 C 6,1 C 79 % 1024,5 hPa 0,0 l/m 0 min 0 min 0 W/m 22,5 km/h (4 Bft) 100,00 %
22.02.2020 00:36 7,5 C 6,7 C 6,1 C 79 % 1024,5 hPa 0,0 l/m 0 min 0 min 0 W/m 22,5 km/h (4 Bft) 95,65 %
22.02.2020 00:38 7,4 C 6,7 C 6,1 C 79 % 1024,3 hPa 0,0 l/m 0 min 0 min 0 W/m 38,6 km/h (5 Bft) 100,00 %
22.02.2020 00:40 7,5 C 6,7 C 6,1 C 79 % 1024,3 hPa 0,0 l/m 0 min 0 min 0 W/m 29,0 km/h (5 Bft) 97,87 %
22.02.2020 00:42 7,4 C 6,7 C 6,1 C 79 % 1024,2 hPa 0,0 l/m 0 min 0 min 0 W/m 41,8 km/h (6 Bft) 100,00 %
22.02.2020 00:44 7,4 C 6,7 C 6,1 C 79 % 1024,2 hPa 0,0 l/m 0 min 0 min 0 W/m 25,7 km/h (4 Bft) 100,00 %
22.02.2020 00:46 7,4 C 6,7 C 6,1 C 79 % 1024,2 hPa 0,0 l/m 0 min 0 min 0 W/m 41,8 km/h (6 Bft) 100,00 %
22.02.2020 00:48 7,4 C 6,7 C 6,1 C 79 % 1024,3 hPa 0,0 l/m 0 min 0 min 0 W/m 35,4 km/h (5 Bft) 97,83 %
22.02.2020 00:50 7,4 C 6,7 C 6,1 C 79 % 1024,1 hPa 0,0 l/m 0 min 0 min 0 W/m 35,4 km/h (5 Bft) 100,00 %
22.02.2020 00:52 7,4 C 6,7 C 6,1 C 79 % 1023,9 hPa 0,0 l/m 0 min 0 min 0 W/m 29,0 km/h (5 Bft) 100,00 %
22.02.2020 00:54 7,4 C 6,7 C 6,1 C 79 % 1023,9 hPa 0,0 l/m 0 min 0 min 0 W/m 29,0 km/h (5 Bft) 100,00 %
22.02.2020 00:56 7,4 C 6,7 C 6,1 C 79 % 1024,0 hPa 0,0 l/m 0 min 0 min 0 W/m 29,0 km/h (5 Bft) 97,87 %
22.02.2020 00:58 7,4 C 6,7 C 6,1 C 79 % 1024,2 hPa 0,0 l/m 0 min 0 min 0 W/m 35,4 km/h (5 Bft) 100,00 %
22.02.2020 01:00 7,4 C 6,7 C 6,1 C 79 % 1024,0 hPa 0,0 l/m 0 min 0 min 0 W/m 41,8 km/h (6 Bft) 97,83 %
22.02.2020 01:02 7,4 C 6,7 C 6,1 C 79 % 1024,0 hPa 0,0 l/m 0 min 0 min 0 W/m 29,0 km/h (5 Bft) 100,00 %
22.02.2020 01:04 7,4 C 6,7 C 6,1 C 79 % 1023,9 hPa 0,0 l/m 0 min 0 min 0 W/m 35,4 km/h (5 Bft) 100,00 %
22.02.2020 01:06 7,4 C 6,7 C 6,1 C 79 % 1024,1 hPa 0,0 l/m 0 min 0 min 0 W/m 29,0 km/h (5 Bft) 95,74 %
22.02.2020 01:08 7,4 C 6,7 C 6,1 C 79 % 1024,0 hPa 0,0 l/m 0 min 0 min 0 W/m 29,0 km/h (5 Bft) 97,87 %
22.02.2020 01:10 7,4 C 6,7 C 6,1 C 79 % 1024,0 hPa 0,0 l/m 0 min 0 min 0 W/m 29,0 km/h (5 Bft) 97,87 %
22.02.2020 01:12 7,3 C 6,7 C 6,1 C 79 % 1024,1 hPa 0,0 l/m 0 min 0 min 0 W/m 32,2 km/h (5 Bft) 97,83 %
22.02.2020 01:14 7,3 C 6,7 C 6,1 C 79 % 1024,1 hPa 0,0 l/m 0 min 0 min 0 W/m 32,2 km/h (5 Bft) 97,87 %
22.02.2020 01:16 7,3 C 6,7 C 6,1 C 79 % 1024,1 hPa 0,0 l/m 0 min 0 min 0 W/m 35,4 km/h (5 Bft) 97,87 %
22.02.2020 01:18 7,3 C 6,7 C 6,1 C 79 % 1024,0 hPa 0,0 l/m 0 min 0 min 0 W/m 38,6 km/h (5 Bft) 97,87 %
22.02.2020 01:20 7,3 C 6,7 C 6,1 C 79 % 1024,0 hPa 0,0 l/m 0 min 0 min 0 W/m 25,7 km/h (4 Bft) 97,87 %
22.02.2020 01:22 7,3 C 6,7 C 6,1 C 79 % 1024,0 hPa 0,0 l/m 0 min 0 min 0 W/m 22,5 km/h (4 Bft) 97,83 %
22.02.2020 01:24 7,3 C 6,7 C 6,1 C 80 % 1024,0 hPa 0,0 l/m 0 min 0 min 0 W/m 22,5 km/h (4 Bft) 97,87 %
22.02.2020 01:26 7,3 C 6,7 C 6,1 C 80 % 1024,0 hPa 0,0 l/m 0 min 0 min 0 W/m 25,7 km/h (4 Bft) 95,74 %
22.02.2020 01:28 7,3 C 6,7 C 6,1 C 80 % 1024,0 hPa 0,0 l/m 0 min 0 min 0 W/m 25,7 km/h (4 Bft) 97,87 %
22.02.2020 01:30 7,2 C 6,7 C 6,1 C 80 % 1024,1 hPa 0,0 l/m 0 min 0 min 0 W/m 29,0 km/h (5 Bft) 95,74 %
22.02.2020 01:32 7,2 C 6,7 C 6,1 C 80 % 1024,0 hPa 0,0 l/m 0 min 0 min 0 W/m 29,0 km/h (5 Bft) 95,74 %
22.02.2020 01:34 7,2 C 6,7 C 6,1 C 80 % 1024,1 hPa 0,0 l/m 0 min 0 min 0 W/m 25,7 km/h (4 Bft) 97,83 %
22.02.2020 01:36 7,2 C 6,7 C 6,1 C 80 % 1024,0 hPa 0,0 l/m 0 min 0 min 0 W/m 19,3 km/h (3 Bft) 95,74 %
22.02.2020 01:38 7,2 C 6,7 C 6,1 C 80 % 1024,0 hPa 0,0 l/m 0 min 0 min 0 W/m 32,2 km/h (5 Bft) 97,87 %
22.02.2020 01:40 7,2 C 6,7 C 6,1 C 80 % 1023,9 hPa 0,0 l/m 0 min 0 min 0 W/m 32,2 km/h (5 Bft) 97,87 %
22.02.2020 01:42 7,2 C 6,7 C 6,1 C 80 % 1023,8 hPa 0,0 l/m 0 min 0 min 0 W/m 38,6 km/h (5 Bft) 93,62 %
22.02.2020 01:44 7,2 C 6,7 C 6,1 C 80 % 1023,7 hPa 0,0 l/m 0 min 0 min 0 W/m 45,1 km/h (6 Bft) 97,87 %
22.02.2020 01:46 7,2 C 6,7 C 6,1 C 80 % 1023,8 hPa 0,0 l/m 0 min 0 min 0 W/m 29,0 km/h (5 Bft) 97,83 %
22.02.2020 01:48 7,2 C 6,7 C 6,1 C 80 % 1023,8 hPa 0,0 l/m 0 min 0 min 0 W/m 25,7 km/h (4 Bft) 97,87 %
22.02.2020 01:50 7,2 C 6,7 C 5,6 C 80 % 1023,7 hPa 0,0 l/m 0 min 0 min 0 W/m 25,7 km/h (4 Bft) 93,62 %
22.02.2020 01:52 7,2 C 6,1 C 5,6 C 80 % 1023,8 hPa 0,0 l/m 0 min 0 min 0 W/m 35,4 km/h (5 Bft) 95,74 %
22.02.2020 01:54 7,1 C 6,1 C 5,6 C 80 % 1023,8 hPa 0,0 l/m 0 min 0 min 0 W/m 32,2 km/h (5 Bft) 93,62 %
22.02.2020 01:56 7,1 C 6,1 C 5,6 C 80 % 1023,7 hPa 0,0 l/m 0 min 0 min 0 W/m 41,8 km/h (6 Bft) 93,62 %
22.02.2020 01:58 7,1 C 6,1 C 5,6 C 80 % 1023,9 hPa 0,0 l/m 0 min 0 min 0 W/m 25,7 km/h (4 Bft) 95,65 %
22.02.2020 02:00 7,1 C 6,1 C 5,6 C 80 % 1023,8 hPa 0,0 l/m 0 min 0 min 0 W/m 25,7 km/h (4 Bft) 95,74 %
22.02.2020 02:02 7,1 C 6,1 C 5,6 C 81 % 1023,8 hPa 0,0 l/m 0 min 0 min 0 W/m 19,3 km/h (3 Bft) 95,74 %
22.02.2020 02:04 7,1 C 6,1 C 5,6 C 81 % 1023,9 hPa 0,0 l/m 0 min 0 min 0 W/m 22,5 km/h (4 Bft) 95,74 %
22.02.2020 02:06 7,1 C 6,1 C 5,6 C 81 % 1023,8 hPa 0,0 l/m 0 min 0 min 0 W/m 22,5 km/h (4 Bft) 93,62 %
22.02.2020 02:08 7,1 C 6,1 C 5,6 C 81 % 1023,7 hPa 0,0 l/m 0 min 0 min 0 W/m 25,7 km/h (4 Bft) 95,65 %
22.02.2020 02:10 7,1 C 6,1 C 5,6 C 81 % 1023,6 hPa 0,0 l/m 0 min 0 min 0 W/m 25,7 km/h (4 Bft) 95,74 %
22.02.2020 02:12 7,1 C 6,1 C 5,6 C 81 % 1023,5 hPa 0,0 l/m 0 min 0 min 0 W/m 29,0 km/h (5 Bft) 93,62 %
22.02.2020 02:14 7,1 C 6,1 C 5,6 C 81 % 1023,4 hPa 0,0 l/m 0 min 0 min 0 W/m 41,8 km/h (6 Bft) 95,74 %
22.02.2020 02:16 7,0 C 6,1 C 5,6 C 81 % 1023,4 hPa 0,0 l/m 0 min 0 min 0 W/m 32,2 km/h (5 Bft) 97,87 %
22.02.2020 02:18 7,0 C 6,1 C 5,6 C 81 % 1023,2 hPa 0,0 l/m 0 min 0 min 0 W/m 32,2 km/h (5 Bft) 97,87 %
22.02.2020 02:20 7,0 C 6,1 C 5,6 C 81 % 1023,2 hPa 0,0 l/m 0 min 0 min 0 W/m 25,7 km/h (4 Bft) 97,83 %
22.02.2020 02:22 7,0 C 6,1 C 5,6 C 81 % 1023,3 hPa 0,0 l/m 0 min 0 min 0 W/m 25,7 km/h (4 Bft) 95,74 %
22.02.2020 02:24 7,1 C 6,1 C 5,6 C 81 % 1023,2 hPa 0,0 l/m 0 min 0 min 0 W/m 25,7 km/h (4 Bft) 95,74 %
22.02.2020 02:26 7,1 C 6,1 C 5,6 C 81 % 1023,1 hPa 0,0 l/m 0 min 0 min 0 W/m 22,5 km/h (4 Bft) 93,62 %
22.02.2020 02:28 7,1 C 6,1 C 5,6 C 82 % 1023,1 hPa 0,0 l/m 0 min 0 min 0 W/m 25,7 km/h (4 Bft) 93,62 %
22.02.2020 02:30 7,1 C 6,1 C 5,6 C 82 % 1023,1 hPa 0,0 l/m 0 min 0 min 0 W/m 25,7 km/h (4 Bft) 93,62 %
22.02.2020 02:32 7,0 C 6,1 C 5,6 C 82 % 1023,3 hPa 0,0 l/m 0 min 0 min 0 W/m 25,7 km/h (4 Bft) 93,48 %
22.02.2020 02:34 7,1 C 6,1 C 5,6 C 81 % 1023,1 hPa 0,0 l/m 0 min 0 min 0 W/m 16,1 km/h (3 Bft) 97,87 %
22.02.2020 02:36 7,1 C 6,1 C 5,6 C 82 % 1023,2 hPa 0,0 l/m 0 min 0 min 0 W/m 29,0 km/h (5 Bft) 97,87 %
22.02.2020 02:38 7,0 C 6,1 C 5,6 C 82 % 1023,1 hPa 0,0 l/m 0 min 0 min 0 W/m 25,7 km/h (4 Bft) 97,87 %
22.02.2020 02:40 7,1 C 6,1 C 5,6 C 82 % 1023,2 hPa 0,0 l/m 0 min 0 min 0 W/m 32,2 km/h (5 Bft) 93,62 %
22.02.2020 02:42 7,1 C 6,1 C 5,6 C 82 % 1023,2 hPa 0,0 l/m 0 min 0 min 0 W/m 19,3 km/h (3 Bft) 97,87 %
22.02.2020 02:44 7,1 C 6,1 C 5,6 C 82 % 1023,0 hPa 0,0 l/m 0 min 0 min 0 W/m 41,8 km/h (6 Bft) 97,83 %
22.02.2020 02:46 7,0 C 6,1 C 5,6 C 82 % 1023,0 hPa 0,0 l/m 0 min 0 min 0 W/m 19,3 km/h (3 Bft) 97,87 %
22.02.2020 02:48 7,0 C 6,1 C 5,6 C 82 % 1022,9 hPa 0,0 l/m 0 min 0 min 0 W/m 35,4 km/h (5 Bft) 95,74 %
22.02.2020 02:50 7,0 C 6,1 C 5,6 C 82 % 1022,9 hPa 0,0 l/m 0 min 0 min 0 W/m 29,0 km/h (5 Bft) 97,87 %
22.02.2020 02:52 7,0 C 6,1 C 5,6 C 82 % 1022,9 hPa 0,0 l/m 0 min 0 min 0 W/m 29,0 km/h (5 Bft) 95,74 %
22.02.2020 02:54 6,9 C 6,1 C 5,6 C 82 % 1022,8 hPa 0,0 l/m 0 min 0 min 0 W/m 35,4 km/h (5 Bft) 97,87 %
22.02.2020 02:56 6,9 C 6,1 C 5,6 C 82 % 1022,7 hPa 0,0 l/m 0 min 0 min 0 W/m 41,8 km/h (6 Bft) 93,48 %
22.02.2020 02:58 6,9 C 6,1 C 5,6 C 82 % 1022,7 hPa 0,0 l/m 0 min 0 min 0 W/m 32,2 km/h (5 Bft) 97,87 %
22.02.2020 03:00 6,9 C 6,1 C 5,6 C 82 % 1022,8 hPa 0,0 l/m 0 min 0 min 0 W/m 32,2 km/h (5 Bft) 97,87 %
22.02.2020 03:02 6,8 C 5,6 C 5,6 C 82 % 1022,6 hPa 0,0 l/m 0 min 0 min 0 W/m 22,5 km/h (4 Bft) 95,74 %
22.02.2020 03:04 6,8 C 5,6 C 5,0 C 82 % 1022,5 hPa 0,0 l/m 0 min 0 min 0 W/m 29,0 km/h (5 Bft) 93,62 %
22.02.2020 03:06 6,8 C 5,6 C 5,0 C 82 % 1022,5 hPa 0,0 l/m 0 min 0 min 0 W/m 22,5 km/h (4 Bft) 97,87 %
22.02.2020 03:08 6,8 C 5,6 C 5,0 C 82 % 1022,4 hPa 0,0 l/m 0 min 0 min 0 W/m 25,7 km/h (4 Bft) 100,00 %
22.02.2020 03:10 6,7 C 5,6 C 5,0 C 82 % 1022,4 hPa 0,0 l/m 0 min 0 min 0 W/m 22,5 km/h (4 Bft) 97,87 %
22.02.2020 03:12 6,7 C 5,6 C 5,0 C 83 % 1022,4 hPa 0,0 l/m 0 min 0 min 0 W/m 29,0 km/h (5 Bft) 95,74 %
22.02.2020 03:14 6,7 C 5,6 C 5,0 C 83 % 1022,2 hPa 0,0 l/m 0 min 0 min 0 W/m 29,0 km/h (5 Bft) 100,00 %
22.02.2020 03:16 6,6 C 5,6 C 5,0 C 83 % 1022,2 hPa 0,0 l/m 0 min 0 min 0 W/m 22,5 km/h (4 Bft) 95,74 %
22.02.2020 03:18 6,6 C 5,6 C 5,0 C 83 % 1022,1 hPa 0,0 l/m 0 min 0 min 0 W/m 29,0 km/h (5 Bft) 100,00 %
22.02.2020 03:20 6,6 C 5,6 C 5,0 C 83 % 1022,0 hPa 0,0 l/m 0 min 0 min 0 W/m 19,3 km/h (3 Bft) 97,87 %
22.02.2020 03:22 6,6 C 5,6 C 5,0 C 83 % 1022,1 hPa 0,0 l/m 0 min 0 min 0 W/m 22,5 km/h (4 Bft) 100,00 %
22.02.2020 03:24 6,6 C 5,6 C 5,0 C 83 % 1022,1 hPa 0,0 l/m 0 min 0 min 0 W/m 19,3 km/h (3 Bft) 100,00 %
22.02.2020 03:26 6,5 C 5,6 C 5,0 C 83 % 1022,1 hPa 0,0 l/m 0 min 0 min 0 W/m 29,0 km/h (5 Bft) 100,00 %
22.02.2020 03:28 6,5 C 5,6 C 5,0 C 83 % 1022,3 hPa 0,0 l/m 0 min 0 min 0 W/m 19,3 km/h (3 Bft) 100,00 %
22.02.2020 03:30 6,5 C 5,6 C 5,0 C 83 % 1022,3 hPa 0,0 l/m 0 min 0 min 0 W/m 29,0 km/h (5 Bft) 100,00 %
22.02.2020 03:32 6,4 C 5,6 C 5,0 C 84 % 1022,3 hPa 0,0 l/m 0 min 0 min 0 W/m 16,1 km/h (3 Bft) 100,00 %
22.02.2020 03:34 6,4 C 5,6 C 5,0 C 84 % 1022,4 hPa 0,0 l/m 0 min 0 min 0 W/m 19,3 km/h (3 Bft) 100,00 %
22.02.2020 03:36 6,4 C 5,6 C 5,0 C 84 % 1022,3 hPa 0,0 l/m 0 min 0 min 0 W/m 25,7 km/h (4 Bft) 97,87 %
22.02.2020 03:38 6,4 C 5,6 C 5,0 C 84 % 1022,3 hPa 0,0 l/m 0 min 0 min 0 W/m 22,5 km/h (4 Bft) 100,00 %
22.02.2020 03:40 6,3 C 5,6 C 5,0 C 84 % 1022,2 hPa 0,0 l/m 0 min 0 min 0 W/m 16,1 km/h (3 Bft) 100,00 %
22.02.2020 03:42 6,3 C 5,6 C 5,0 C 84 % 1022,2 hPa 0,0 l/m 0 min 0 min 0 W/m 32,2 km/h (5 Bft) 100,00 %
22.02.2020 03:44 6,3 C 5,6 C 5,0 C 84 % 1022,0 hPa 0,0 l/m 0 min 0 min 0 W/m 22,5 km/h (4 Bft) 100,00 %
22.02.2020 03:46 6,3 C 5,6 C 5,0 C 84 % 1022,0 hPa 0,0 l/m 0 min 0 min 0 W/m 22,5 km/h (4 Bft) 97,87 %
22.02.2020 03:48 6,3 C 5,6 C 5,0 C 84 % 1021,9 hPa 0,0 l/m 0 min 0 min 0 W/m 32,2 km/h (5 Bft) 97,87 %
22.02.2020 03:50 6,3 C 5,6 C 5,0 C 84 % 1021,8 hPa 0,0 l/m 0 min 0 min 0 W/m 32,2 km/h (5 Bft) 100,00 %
22.02.2020 03:52 6,3 C 5,6 C 5,0 C 84 % 1021,8 hPa 0,0 l/m 0 min 0 min 0 W/m 22,5 km/h (4 Bft) 100,00 %
22.02.2020 03:54 6,3 C 5,6 C 5,0 C 84 % 1021,9 hPa 0,0 l/m 0 min 0 min 0 W/m 29,0 km/h (5 Bft) 97,83 %
22.02.2020 03:56 6,3 C 5,6 C 4,4 C 84 % 1021,9 hPa 0,0 l/m 0 min 0 min 0 W/m 19,3 km/h (3 Bft) 100,00 %
22.02.2020 03:58 6,2 C 5,0 C 4,4 C 84 % 1021,9 hPa 0,0 l/m 0 min 0 min 0 W/m 25,7 km/h (4 Bft) 100,00 %
22.02.2020 04:00 6,2 C 5,0 C 4,4 C 84 % 1021,9 hPa 0,0 l/m 0 min 0 min 0 W/m 22,5 km/h (4 Bft) 100,00 %
22.02.2020 04:02 6,2 C 5,0 C 4,4 C 84 % 1021,8 hPa 0,0 l/m 0 min 0 min 0 W/m 22,5 km/h (4 Bft) 100,00 %
22.02.2020 04:04 6,2 C 5,6 C 4,4 C 84 % 1021,8 hPa 0,0 l/m 0 min 0 min 0 W/m 32,2 km/h (5 Bft) 95,74 %
22.02.2020 04:06 6,1 C 5,0 C 4,4 C 84 % 1021,8 hPa 0,0 l/m 0 min 0 min 0 W/m 22,5 km/h (4 Bft) 100,00 %
22.02.2020 04:08 6,1 C 5,0 C 4,4 C 85 % 1021,6 hPa 0,0 l/m 0 min 0 min 0 W/m 29,0 km/h (5 Bft) 97,87 %
22.02.2020 04:10 6,1 C 5,6 C 4,4 C 85 % 1021,7 hPa 0,0 l/m 0 min 0 min 0 W/m 32,2 km/h (5 Bft) 97,87 %
22.02.2020 04:12 6,1 C 5,0 C 4,4 C 85 % 1021,7 hPa 0,0 l/m 0 min 0 min 0 W/m 32,2 km/h (5 Bft) 100,00 %
22.02.2020 04:14 6,1 C 5,0 C 4,4 C 85 % 1021,8 hPa 0,0 l/m 0 min 0 min 0 W/m 32,2 km/h (5 Bft) 97,87 %
22.02.2020 04:16 6,1 C 5,0 C 4,4 C 84 % 1021,7 hPa 0,0 l/m 0 min 0 min 0 W/m 22,5 km/h (4 Bft) 97,83 %
22.02.2020 04:18 6,0 C 5,0 C 4,4 C 84 % 1021,6 hPa 0,0 l/m 0 min 0 min 0 W/m 35,4 km/h (5 Bft) 95,74 %
22.02.2020 04:20 6,0 C 5,0 C 4,4 C 84 % 1021,6 hPa 0,0 l/m 0 min 0 min 0 W/m 32,2 km/h (5 Bft) 100,00 %
22.02.2020 04:22 6,0 C 5,0 C 4,4 C 84 % 1021,7 hPa 0,0 l/m 0 min 0 min 0 W/m 25,7 km/h (4 Bft) 97,87 %
22.02.2020 04:24 6,0 C 5,0 C 4,4 C 84 % 1021,6 hPa 0,0 l/m 0 min 0 min 0 W/m 16,1 km/h (3 Bft) 97,87 %
22.02.2020 04:26 5,9 C 5,0 C 4,4 C 84 % 1021,7 hPa 0,0 l/m 0 min 0 min 0 W/m 22,5 km/h (4 Bft) 97,87 %
22.02.2020 04:28 5,9 C 5,0 C 4,4 C 84 % 1021,8 hPa 0,0 l/m 0 min 0 min 0 W/m 19,3 km/h (3 Bft) 97,83 %
22.02.2020 04:30 5,9 C 5,0 C 4,4 C 84 % 1021,7 hPa 0,0 l/m 0 min 0 min 0 W/m 22,5 km/h (4 Bft) 97,87 %
22.02.2020 04:32 5,9 C 5,0 C 4,4 C 84 % 1021,7 hPa 0,0 l/m 0 min 0 min 0 W/m 38,6 km/h (5 Bft) 97,87 %
22.02.2020 04:34 5,9 C 5,0 C 4,4 C 84 % 1021,8 hPa 0,0 l/m 0 min 0 min 0 W/m 29,0 km/h (5 Bft) 95,74 %
22.02.2020 04:36 5,9 C 5,0 C 4,4 C 84 % 1021,7 hPa 0,0 l/m 0 min 0 min 0 W/m 32,2 km/h (5 Bft) 97,87 %
22.02.2020 04:38 5,9 C 5,0 C 4,4 C 84 % 1021,8 hPa 0,0 l/m 0 min 0 min 0 W/m 19,3 km/h (3 Bft) 93,62 %
22.02.2020 04:40 5,9 C 5,0 C 4,4 C 84 % 1021,8 hPa 0,0 l/m 0 min 0 min 0 W/m 29,0 km/h (5 Bft) 95,65 %
22.02.2020 04:42 5,9 C 5,0 C 4,4 C 84 % 1021,8 hPa 0,0 l/m 0 min 0 min 0 W/m 25,7 km/h (4 Bft) 95,74 %
22.02.2020 04:44 5,9 C 5,6 C 4,4 C 84 % 1021,6 hPa 0,0 l/m 0 min 0 min 0 W/m 29,0 km/h (5 Bft) 97,87 %
22.02.2020 04:46 5,9 C 5,6 C 4,4 C 84 % 1021,5 hPa 0,0 l/m 0 min 0 min 0 W/m 25,7 km/h (4 Bft) 97,87 %
22.02.2020 04:48 5,9 C 5,6 C 4,4 C 84 % 1021,5 hPa 0,0 l/m 0 min 0 min 0 W/m 29,0 km/h (5 Bft) 100,00 %
22.02.2020 04:50 5,9 C 5,6 C 4,4 C 84 % 1021,5 hPa 0,0 l/m 0 min 0 min 0 W/m 29,0 km/h (5 Bft) 97,87 %
22.02.2020 04:52 5,9 C 5,6 C 5,0 C 84 % 1021,5 hPa 0,0 l/m 0 min 0 min 0 W/m 48,3 km/h (6 Bft) 95,65 %
22.02.2020 04:54 6,0 C 5,6 C 5,0 C 84 % 1021,5 hPa 0,0 l/m 0 min 0 min 0 W/m 32,2 km/h (5 Bft) 97,87 %
22.02.2020 04:56 6,0 C 5,6 C 5,0 C 83 % 1021,4 hPa 0,0 l/m 0 min 0 min 0 W/m 25,7 km/h (4 Bft) 97,87 %
22.02.2020 04:58 6,0 C 5,6 C 5,0 C 83 % 1021,5 hPa 0,0 l/m 0 min 0 min 0 W/m 29,0 km/h (5 Bft) 95,74 %
22.02.2020 05:00 6,0 C 5,6 C 5,0 C 83 % 1021,5 hPa 0,0 l/m 0 min 0 min 0 W/m 22,5 km/h (4 Bft) 95,74 %
22.02.2020 05:02 6,0 C 5,6 C 5,0 C 83 % 1021,4 hPa 0,0 l/m 0 min 0 min 0 W/m 35,4 km/h (5 Bft) 95,74 %
22.02.2020 05:04 6,1 C 5,6 C 5,0 C 83 % 1021,2 hPa 0,0 l/m 0 min 0 min 0 W/m 32,2 km/h (5 Bft) 97,83 %
22.02.2020 05:06 6,1 C 5,6 C 5,0 C 83 % 1021,3 hPa 0,0 l/m 0 min 0 min 0 W/m 25,7 km/h (4 Bft) 95,74 %
22.02.2020 05:08 6,1 C 5,6 C 5,0 C 83 % 1021,3 hPa 0,0 l/m 0 min 0 min 0 W/m 29,0 km/h (5 Bft) 97,87 %
22.02.2020 05:10 6,1 C 5,6 C 5,0 C 82 % 1021,2 hPa 0,0 l/m 0 min 0 min 0 W/m 38,6 km/h (5 Bft) 97,87 %
22.02.2020 05:12 6,1 C 5,6 C 5,0 C 82 % 1021,3 hPa 0,0 l/m 0 min 0 min 0 W/m 35,4 km/h (5 Bft) 100,00 %
22.02.2020 05:14 6,1 C 5,6 C 5,0 C 82 % 1021,1 hPa 0,0 l/m 0 min 0 min 0 W/m 25,7 km/h (4 Bft) 97,87 %
22.02.2020 05:16 6,1 C 5,6 C 5,0 C 82 % 1020,9 hPa 0,0 l/m 0 min 0 min 0 W/m 29,0 km/h (5 Bft) 93,48 %
22.02.2020 05:18 6,1 C 5,6 C 5,0 C 82 % 1021,1 hPa 0,0 l/m 0 min 0 min 0 W/m 22,5 km/h (4 Bft) 95,74 %
22.02.2020 05:20 6,1 C 5,6 C 5,0 C 81 % 1021,0 hPa 0,0 l/m 0 min 0 min 0 W/m 29,0 km/h (5 Bft) 93,62 %
22.02.2020 05:22 6,1 C 5,6 C 5,0 C 81 % 1021,0 hPa 0,0 l/m 0 min 0 min 0 W/m 38,6 km/h (5 Bft) 95,74 %
22.02.2020 05:24 6,1 C 5,6 C 5,0 C 81 % 1021,0 hPa 0,0 l/m 0 min 0 min 0 W/m 25,7 km/h (4 Bft) 95,74 %
22.02.2020 05:26 6,1 C 5,6 C 5,0 C 81 % 1021,0 hPa 0,0 l/m 0 min 0 min 0 W/m 22,5 km/h (4 Bft) 95,65 %
22.02.2020 05:28 6,1 C 5,6 C 5,0 C 81 % 1021,1 hPa 0,0 l/m 0 min 0 min 0 W/m 19,3 km/h (3 Bft) 95,74 %
22.02.2020 05:30 6,1 C 5,6 C 5,0 C 80 % 1020,8 hPa 0,0 l/m 0 min 0 min 0 W/m 35,4 km/h (5 Bft) 95,74 %
22.02.2020 05:32 6,1 C 5,6 C 5,0 C 80 % 1020,9 hPa 0,0 l/m 0 min 0 min 0 W/m 32,2 km/h (5 Bft) 93,62 %
22.02.2020 05:34 6,1 C 5,6 C 5,0 C 80 % 1020,9 hPa 0,0 l/m 0 min 0 min 0 W/m 16,1 km/h (3 Bft) 95,74 %
22.02.2020 05:36 6,1 C 5,6 C 5,0 C 80 % 1020,9 hPa 0,0 l/m 0 min 0 min 0 W/m 29,0 km/h (5 Bft) 91,49 %
22.02.2020 05:38 6,2 C 5,6 C 5,0 C 80 % 1020,8 hPa 0,0 l/m 0 min 0 min 0 W/m 29,0 km/h (5 Bft) 95,65 %
22.02.2020 05:40 6,2 C 5,6 C 5,0 C 79 % 1020,8 hPa 0,0 l/m 0 min 0 min 0 W/m 29,0 km/h (5 Bft) 95,74 %
22.02.2020 05:42 6,2 C 5,6 C 5,0 C 79 % 1020,8 hPa 0,0 l/m 0 min 0 min 0 W/m 25,7 km/h (4 Bft) 95,74 %
22.02.2020 05:44 6,2 C 5,6 C 5,0 C 79 % 1020,9 hPa 0,0 l/m 0 min 0 min 0 W/m 35,4 km/h (5 Bft) 95,74 %
22.02.2020 05:46 6,3 C 5,6 C 5,0 C 79 % 1020,9 hPa 0,0 l/m 0 min 0 min 0 W/m 22,5 km/h (4 Bft) 95,74 %
22.02.2020 05:48 6,3 C 5,6 C 5,0 C 78 % 1020,8 hPa 0,0 l/m 0 min 0 min 0 W/m 32,2 km/h (5 Bft) 95,74 %
22.02.2020 05:50 6,3 C 5,6 C 5,0 C 78 % 1020,7 hPa 0,0 l/m 0 min 0 min 0 W/m 22,5 km/h (4 Bft) 93,48 %
22.02.2020 05:52 6,3 C 5,6 C 5,0 C 78 % 1020,6 hPa 0,0 l/m 0 min 0 min 0 W/m 19,3 km/h (3 Bft) 95,74 %
22.02.2020 05:54 6,3 C 5,6 C 5,0 C 77 % 1020,6 hPa 0,0 l/m 0 min 0 min 0 W/m 35,4 km/h (5 Bft) 95,74 %
22.02.2020 05:56 6,3 C 5,6 C 5,0 C 77 % 1020,5 hPa 0,0 l/m 0 min 0 min 0 W/m 22,5 km/h (4 Bft) 95,74 %
22.02.2020 05:58 6,3 C 5,6 C 5,0 C 77 % 1020,6 hPa 0,0 l/m 0 min 0 min 0 W/m 32,2 km/h (5 Bft) 95,74 %
22.02.2020 06:00 6,4 C 5,6 C 5,0 C 77 % 1020,5 hPa 0,0 l/m 0 min 0 min 0 W/m 22,5 km/h (4 Bft) 97,87 %
22.02.2020 06:02 6,4 C 5,6 C 5,0 C 77 % 1020,5 hPa 0,0 l/m 0 min 0 min 0 W/m 19,3 km/h (3 Bft) 95,65 %
22.02.2020 06:04 6,4 C 5,6 C 5,0 C 77 % 1020,5 hPa 0,0 l/m 0 min 0 min 0 W/m 22,5 km/h (4 Bft) 100,00 %
22.02.2020 06:08 6,4 C 5,6 C 5,0 C 76 % 1020,5 hPa 0,0 l/m 0 min 0 min 0 W/m 32,2 km/h (5 Bft) 97,87 %
22.02.2020 06:10 6,3 C 5,6 C 5,0 C 76 % 1020,5 hPa 0,0 l/m 0 min 0 min 0 W/m 25,7 km/h (4 Bft) 100,00 %
22.02.2020 06:12 6,4 C 5,6 C 5,0 C 76 % 1020,5 hPa 0,0 l/m 0 min 0 min 0 W/m 25,7 km/h (4 Bft) 100,00 %
22.02.2020 06:14 6,4 C 5,6 C 5,0 C 75 % 1020,5 hPa 0,0 l/m 0 min 0 min 0 W/m 22,5 km/h (4 Bft) 100,00 %
22.02.2020 06:16 6,4 C 5,6 C 5,0 C 75 % 1020,5 hPa 0,0 l/m 0 min 0 min 0 W/m 29,0 km/h (5 Bft) 95,74 %
22.02.2020 06:18 6,4 C 6,1 C 5,0 C 75 % 1020,6 hPa 0,0 l/m 0 min 0 min 0 W/m 22,5 km/h (4 Bft) 100,00 %
22.02.2020 06:20 6,4 C 5,6 C 5,0 C 75 % 1020,4 hPa 0,0 l/m 0 min 0 min 0 W/m 22,5 km/h (4 Bft) 100,00 %
22.02.2020 06:22 6,4 C 5,6 C 5,0 C 75 % 1020,4 hPa 0,0 l/m 0 min 0 min 0 W/m 16,1 km/h (3 Bft) 93,62 %
22.02.2020 06:24 6,4 C 5,6 C 5,0 C 75 % 1020,5 hPa 0,0 l/m 0 min 0 min 0 W/m 25,7 km/h (4 Bft) 97,87 %
22.02.2020 06:26 6,4 C 5,6 C 5,0 C 74 % 1020,3 hPa 0,0 l/m 0 min 0 min 0 W/m 22,5 km/h (4 Bft) 97,83 %
22.02.2020 06:28 6,4 C 5,6 C 5,0 C 74 % 1020,4 hPa 0,0 l/m 0 min 0 min 0 W/m 25,7 km/h (4 Bft) 100,00 %
22.02.2020 06:30 6,4 C 5,6 C 5,0 C 74 % 1020,4 hPa 0,0 l/m 0 min 0 min 0 W/m 19,3 km/h (3 Bft) 100,00 %
22.02.2020 06:32 6,4 C 5,6 C 5,0 C 74 % 1020,4 hPa 0,0 l/m 0 min 0 min 0 W/m 19,3 km/h (3 Bft) 95,83 %
22.02.2020 06:34 6,4 C 5,6 C 5,0 C 74 % 1020,3 hPa 0,0 l/m 0 min 0 min 0 W/m 29,0 km/h (5 Bft) 100,00 %
22.02.2020 06:36 6,3 C 5,6 C 5,0 C 74 % 1020,2 hPa 0,0 l/m 0 min 0 min 0 W/m 16,1 km/h (3 Bft) 95,65 %
22.02.2020 06:38 6,3 C 5,6 C 5,0 C 74 % 1020,2 hPa 0,0 l/m 0 min 0 min 0 W/m 22,5 km/h (4 Bft) 100,00 %
22.02.2020 06:40 6,3 C 5,6 C 5,0 C 74 % 1020,3 hPa 0,0 l/m 0 min 0 min 0 W/m 25,7 km/h (4 Bft) 100,00 %
22.02.2020 06:42 6,3 C 6,1 C 5,0 C 73 % 1020,2 hPa 0,0 l/m 0 min 0 min 0 W/m 22,5 km/h (4 Bft) 100,00 %
22.02.2020 06:44 6,3 C 6,1 C 5,0 C 72 % 1020,1 hPa 0,0 l/m 0 min 0 min 0 W/m 22,5 km/h (4 Bft) 100,00 %
22.02.2020 06:46 6,4 C 6,1 C 5,0 C 72 % 1020,0 hPa 0,0 l/m 0 min 0 min 0 W/m 29,0 km/h (5 Bft) 97,87 %
22.02.2020 06:48 6,4 C 6,1 C 5,6 C 72 % 1019,8 hPa 0,0 l/m 0 min 0 min 0 W/m 35,4 km/h (5 Bft) 100,00 %
22.02.2020 06:50 6,5 C 6,1 C 5,6 C 71 % 1019,8 hPa 0,0 l/m 0 min 0 min 0 W/m 29,0 km/h (5 Bft) 97,87 %
22.02.2020 06:52 6,6 C 6,1 C 5,6 C 72 % 1019,8 hPa 0,0 l/m 0 min 0 min 0 W/m 29,0 km/h (5 Bft) 100,00 %
22.02.2020 06:54 6,6 C 6,1 C 5,6 C 72 % 1020,0 hPa 0,0 l/m 0 min 0 min 0 W/m 45,1 km/h (6 Bft) 95,74 %
22.02.2020 06:56 6,7 C 6,1 C 5,6 C 71 % 1019,9 hPa 0,0 l/m 0 min 0 min 0 W/m 29,0 km/h (5 Bft) 97,87 %
22.02.2020 06:58 6,7 C 6,1 C 5,6 C 71 % 1019,7 hPa 0,0 l/m 0 min 0 min 0 W/m 29,0 km/h (5 Bft) 97,87 %
22.02.2020 07:00 6,7 C 6,1 C 5,6 C 71 % 1020,0 hPa 0,0 l/m 0 min 0 min 0 W/m 25,7 km/h (4 Bft) 97,83 %
22.02.2020 07:02 6,7 C 6,1 C 5,6 C 71 % 1020,0 hPa 0,0 l/m 0 min 0 min 0 W/m 19,3 km/h (3 Bft) 95,74 %
22.02.2020 07:04 6,7 C 6,1 C 5,6 C 71 % 1020,0 hPa 0,0 l/m 0 min 0 min 0 W/m 25,7 km/h (4 Bft) 97,87 %
22.02.2020 07:06 6,7 C 6,1 C 5,6 C 71 % 1020,0 hPa 0,0 l/m 0 min 0 min 0 W/m 35,4 km/h (5 Bft) 97,87 %
22.02.2020 07:08 6,8 C 6,1 C 5,6 C 71 % 1020,2 hPa 0,0 l/m 0 min 0 min 0 W/m 25,7 km/h (4 Bft) 97,87 %
22.02.2020 07:10 6,8 C 6,1 C 5,6 C 71 % 1020,3 hPa 0,0 l/m 0 min 0 min 0 W/m 25,7 km/h (4 Bft) 97,83 %
22.02.2020 07:12 6,8 C 6,7 C 5,6 C 70 % 1020,5 hPa 0,0 l/m 0 min 0 min 0 W/m 32,2 km/h (5 Bft) 97,87 %
22.02.2020 07:14 6,9 C 6,7 C 5,6 C 70 % 1020,4 hPa 0,0 l/m 0 min 0 min 0 W/m 38,6 km/h (5 Bft) 97,87 %
22.02.2020 07:16 6,9 C 6,7 C 5,6 C 70 % 1020,2 hPa 0,0 l/m 0 min 0 min 0 W/m 38,6 km/h (5 Bft) 95,74 %
22.02.2020 07:18 6,9 C 6,7 C 6,1 C 69 % 1020,4 hPa 0,0 l/m 0 min 0 min 0 W/m 45,1 km/h (6 Bft) 97,87 %
22.02.2020 07:20 7,0 C 6,7 C 5,6 C 69 % 1020,2 hPa 0,0 l/m 0 min 0 min 0 W/m 35,4 km/h (5 Bft) 97,87 %
22.02.2020 07:22 7,1 C 6,7 C 6,1 C 69 % 1020,4 hPa 0,0 l/m 0 min 0 min 0 W/m 57,9 km/h (7 Bft) 97,83 %
22.02.2020 07:24 7,1 C 6,7 C 6,1 C 68 % 1020,3 hPa 0,0 l/m 0 min 0 min 0 W/m 38,6 km/h (5 Bft) 95,74 %
22.02.2020 07:26 7,1 C 6,7 C 6,1 C 68 % 1020,4 hPa 0,0 l/m 0 min 0 min 0 W/m 29,0 km/h (5 Bft) 97,87 %
22.02.2020 07:28 7,2 C 6,7 C 6,1 C 68 % 1020,4 hPa 0,0 l/m 0 min 0 min 0 W/m 22,5 km/h (4 Bft) 95,74 %
22.02.2020 07:30 7,2 C 6,7 C 6,1 C 68 % 1020,6 hPa 0,0 l/m 0 min 0 min 1 W/m 29,0 km/h (5 Bft) 97,87 %
22.02.2020 07:32 7,2 C 6,7 C 6,1 C 68 % 1020,4 hPa 0,0 l/m 0 min 0 min 5 W/m 38,6 km/h (5 Bft) 95,74 %
22.02.2020 07:34 7,2 C 6,7 C 6,1 C 67 % 1020,1 hPa 0,0 l/m 0 min 0 min 5 W/m 35,4 km/h (5 Bft) 93,48 %
22.02.2020 07:36 7,2 C 6,7 C 6,1 C 67 % 1019,8 hPa 0,0 l/m 0 min 0 min 5 W/m 35,4 km/h (5 Bft) 97,87 %
22.02.2020 07:38 7,3 C 6,7 C 6,1 C 67 % 1019,9 hPa 0,0 l/m 0 min 0 min 6 W/m 32,2 km/h (5 Bft) 100,00 %
22.02.2020 07:40 7,3 C 6,7 C 6,1 C 67 % 1019,9 hPa 0,0 l/m 0 min 0 min 7 W/m 29,0 km/h (5 Bft) 97,87 %
22.02.2020 07:42 7,3 C 6,7 C 6,1 C 67 % 1019,8 hPa 0,0 l/m 0 min 0 min 7 W/m 35,4 km/h (5 Bft) 97,87 %
22.02.2020 07:44 7,3 C 6,7 C 6,1 C 67 % 1020,0 hPa 0,0 l/m 0 min 0 min 7 W/m 25,7 km/h (4 Bft) 100,00 %
22.02.2020 07:46 7,3 C 6,7 C 6,1 C 67 % 1020,0 hPa 0,0 l/m 0 min 0 min 7 W/m 35,4 km/h (5 Bft) 100,00 %
22.02.2020 07:48 7,3 C 6,7 C 6,1 C 67 % 1019,9 hPa 0,0 l/m 0 min 0 min 8 W/m 35,4 km/h (5 Bft) 100,00 %
22.02.2020 07:50 7,3 C 6,7 C 6,1 C 67 % 1020,0 hPa 0,0 l/m 0 min 0 min 10 W/m 29,0 km/h (5 Bft) 100,00 %
22.02.2020 07:52 7,3 C 6,7 C 6,1 C 67 % 1020,1 hPa 0,0 l/m 0 min 0 min 11 W/m 48,3 km/h (6 Bft) 100,00 %
22.02.2020 07:54 7,3 C 6,7 C 6,1 C 67 % 1019,9 hPa 0,0 l/m 0 min 0 min 12 W/m 35,4 km/h (5 Bft) 100,00 %
22.02.2020 07:56 7,4 C 6,7 C 6,1 C 67 % 1019,9 hPa 0,0 l/m 0 min 0 min 12 W/m 19,3 km/h (3 Bft) 95,74 %
22.02.2020 07:58 7,4 C 6,7 C 6,1 C 67 % 1019,9 hPa 0,0 l/m 0 min 0 min 12 W/m 22,5 km/h (4 Bft) 100,00 %
22.02.2020 08:00 7,4 C 6,7 C 6,1 C 67 % 1020,1 hPa 0,0 l/m 0 min 0 min 14 W/m 25,7 km/h (4 Bft) 97,87 %
22.02.2020 08:02 7,4 C 6,7 C 6,1 C 66 % 1020,1 hPa 0,0 l/m 0 min 0 min 17 W/m 32,2 km/h (5 Bft) 97,87 %
22.02.2020 08:04 7,4 C 6,7 C 6,1 C 66 % 1020,3 hPa 0,0 l/m 0 min 0 min 19 W/m 41,8 km/h (6 Bft) 97,87 %
22.02.2020 08:06 7,4 C 7,2 C 6,1 C 66 % 1020,4 hPa 0,0 l/m 0 min 0 min 22 W/m 45,1 km/h (6 Bft) 93,62 %
22.02.2020 08:08 7,5 C 7,2 C 6,1 C 66 % 1020,3 hPa 0,0 l/m 0 min 0 min 24 W/m 35,4 km/h (5 Bft) 93,62 %
22.02.2020 08:10 7,5 C 7,2 C 6,1 C 66 % 1020,3 hPa 0,0 l/m 0 min 0 min 25 W/m 32,2 km/h (5 Bft) 97,83 %
22.02.2020 08:12 7,5 C 7,2 C 6,1 C 67 % 1020,2 hPa 0,0 l/m 0 min 0 min 27 W/m 32,2 km/h (5 Bft) 100,00 %
22.02.2020 08:14 7,6 C 7,2 C 6,1 C 66 % 1020,1 hPa 0,0 l/m 0 min 0 min 29 W/m 29,0 km/h (5 Bft) 97,87 %
22.02.2020 08:16 7,6 C 7,2 C 6,7 C 67 % 1020,1 hPa 0,0 l/m 0 min 0 min 31 W/m 29,0 km/h (5 Bft) 59,57 %
22.02.2020 08:18 7,6 C 7,2 C 6,7 C 66 % 1019,7 hPa 0,0 l/m 0 min 0 min 34 W/m 29,0 km/h (5 Bft) 93,62 %
22.02.2020 08:20 7,6 C 7,2 C 6,7 C 67 % 1019,8 hPa 0,0 l/m 0 min 0 min 37 W/m 25,7 km/h (4 Bft) 97,87 %
22.02.2020 08:22 7,6 C 7,2 C 6,7 C 67 % 1020,0 hPa 0,0 l/m 0 min 0 min 40 W/m 22,5 km/h (4 Bft) 97,83 %
22.02.2020 08:24 7,6 C 7,2 C 6,7 C 66 % 1020,1 hPa 0,0 l/m 0 min 0 min 42 W/m 38,6 km/h (5 Bft) 97,87 %
22.02.2020 08:26 7,6 C 7,2 C 6,7 C 67 % 1020,1 hPa 0,0 l/m 0 min 0 min 41 W/m 25,7 km/h (4 Bft) 93,62 %
22.02.2020 08:28 7,6 C 7,2 C 6,7 C 67 % 1020,1 hPa 0,0 l/m 0 min 0 min 42 W/m 29,0 km/h (5 Bft) 95,74 %
22.02.2020 08:30 7,6 C 7,2 C 6,7 C 66 % 1020,1 hPa 0,0 l/m 0 min 0 min 50 W/m 35,4 km/h (5 Bft) 97,87 %
22.02.2020 08:32 7,7 C 7,2 C 6,7 C 66 % 1020,2 hPa 0,0 l/m 0 min 0 min 64 W/m 38,6 km/h (5 Bft) 97,83 %
22.02.2020 08:34 7,7 C 7,2 C 6,7 C 66 % 1020,0 hPa 0,0 l/m 2 min 0 min 76 W/m 35,4 km/h (5 Bft) 97,87 %
22.02.2020 08:36 7,7 C 7,8 C 6,7 C 66 % 1020,0 hPa 0,0 l/m 2 min 0 min 83 W/m 32,2 km/h (5 Bft) 95,74 %
22.02.2020 08:38 7,7 C 7,8 C 6,7 C 66 % 1019,7 hPa 0,0 l/m 2 min 0 min 84 W/m 38,6 km/h (5 Bft) 95,74 %
22.02.2020 08:40 7,8 C 7,8 C 7,2 C 66 % 1019,7 hPa 0,0 l/m 2 min 0 min 81 W/m 35,4 km/h (5 Bft) 97,87 %
22.02.2020 08:42 7,8 C 7,8 C 7,2 C 65 % 1019,6 hPa 0,0 l/m 2 min 0 min 78 W/m 38,6 km/h (5 Bft) 93,62 %
22.02.2020 08:44 7,9 C 7,8 C 7,2 C 66 % 1019,5 hPa 0,0 l/m 0 min 0 min 74 W/m 25,7 km/h (4 Bft) 93,48 %
22.02.2020 08:46 7,9 C 7,8 C 7,2 C 66 % 1019,6 hPa 0,0 l/m 0 min 0 min 73 W/m 35,4 km/h (5 Bft) 97,87 %
22.02.2020 08:48 7,9 C 7,8 C 7,2 C 66 % 1019,6 hPa 0,0 l/m 0 min 0 min 76 W/m 29,0 km/h (5 Bft) 95,74 %
22.02.2020 08:50 7,9 C 7,8 C 7,2 C 66 % 1019,6 hPa 0,0 l/m 0 min 0 min 80 W/m 22,5 km/h (4 Bft) 93,62 %
22.02.2020 08:52 8,0 C 7,8 C 7,2 C 66 % 1019,5 hPa 0,0 l/m 0 min 0 min 85 W/m 35,4 km/h (5 Bft) 91,49 %
22.02.2020 08:54 8,0 C 7,8 C 7,2 C 65 % 1019,6 hPa 0,0 l/m 0 min 0 min 83 W/m 35,4 km/h (5 Bft) 95,74 %
22.02.2020 08:56 8,1 C 7,8 C 7,2 C 65 % 1019,6 hPa 0,0 l/m 0 min 0 min 73 W/m 25,7 km/h (4 Bft) 97,83 %
22.02.2020 08:58 8,1 C 7,8 C 7,2 C 65 % 1019,6 hPa 0,0 l/m 0 min 0 min 62 W/m 35,4 km/h (5 Bft) 97,87 %
22.02.2020 09:00 8,1 C 7,8 C 7,2 C 65 % 1019,6 hPa 0,0 l/m 0 min 0 min 54 W/m 41,8 km/h (6 Bft) 97,87 %
22.02.2020 09:02 8,2 C 7,8 C 7,2 C 64 % 1019,8 hPa 0,0 l/m 0 min 0 min 48 W/m 48,3 km/h (6 Bft) 97,87 %
22.02.2020 09:04 8,2 C 7,8 C 7,2 C 63 % 1019,6 hPa 0,0 l/m 0 min 0 min 46 W/m 45,1 km/h (6 Bft) 97,87 %
22.02.2020 09:06 8,3 C 7,8 C 7,2 C 63 % 1019,7 hPa 0,0 l/m 0 min 0 min 44 W/m 38,6 km/h (5 Bft) 97,83 %
22.02.2020 09:08 8,3 C 7,8 C 7,2 C 63 % 1019,7 hPa 0,0 l/m 0 min 0 min 46 W/m 48,3 km/h (6 Bft) 95,74 %
22.02.2020 09:10 8,4 C 8,3 C 7,2 C 62 % 1019,8 hPa 0,0 l/m 0 min 0 min 49 W/m 38,6 km/h (5 Bft) 97,87 %
22.02.2020 09:12 8,4 C 8,3 C 7,2 C 62 % 1019,9 hPa 0,0 l/m 0 min 0 min 51 W/m 48,3 km/h (6 Bft) 97,87 %
22.02.2020 09:14 8,4 C 7,8 C 7,2 C 62 % 1019,8 hPa 0,0 l/m 0 min 0 min 49 W/m 19,3 km/h (3 Bft) 97,87 %
22.02.2020 09:16 8,5 C 8,3 C 7,2 C 62 % 1019,7 hPa 0,0 l/m 0 min 0 min 48 W/m 41,8 km/h (6 Bft) 97,87 %
22.02.2020 09:18 8,5 C 8,3 C 7,8 C 61 % 1019,7 hPa 0,0 l/m 0 min 0 min 52 W/m 48,3 km/h (6 Bft) 97,83 %
22.02.2020 09:20 8,6 C 8,3 C 7,8 C 61 % 1019,9 hPa 0,0 l/m 0 min 0 min 61 W/m 35,4 km/h (5 Bft) 95,74 %
22.02.2020 09:22 8,6 C 8,3 C 7,8 C 61 % 1019,6 hPa 0,0 l/m 0 min 0 min 68 W/m 38,6 km/h (5 Bft) 95,74 %
22.02.2020 09:24 8,6 C 8,3 C 7,8 C 61 % 1019,6 hPa 0,0 l/m 0 min 0 min 70 W/m 35,4 km/h (5 Bft) 95,74 %
22.02.2020 09:26 8,7 C 8,3 C 7,8 C 61 % 1019,6 hPa 0,0 l/m 0 min 0 min 68 W/m 32,2 km/h (5 Bft) 97,87 %
22.02.2020 09:28 8,7 C 8,3 C 7,8 C 61 % 1019,6 hPa 0,0 l/m 0 min 0 min 67 W/m 29,0 km/h (5 Bft) 97,87 %
22.02.2020 09:30 8,7 C 8,3 C 7,8 C 61 % 1019,8 hPa 0,0 l/m 0 min 0 min 67 W/m 22,5 km/h (4 Bft) 95,65 %
22.02.2020 09:32 8,7 C 8,3 C 7,8 C 61 % 1019,8 hPa 0,0 l/m 0 min 0 min 68 W/m 35,4 km/h (5 Bft) 95,74 %
22.02.2020 09:34 8,7 C 8,3 C 7,8 C 61 % 1019,6 hPa 0,0 l/m 0 min 0 min 69 W/m 38,6 km/h (5 Bft) 97,87 %
22.02.2020 09:36 8,8 C 8,3 C 7,8 C 61 % 1019,6 hPa 0,0 l/m 0 min 0 min 67 W/m 61,2 km/h (7 Bft) 91,49 %
22.02.2020 09:38 8,8 C 8,3 C 7,8 C 61 % 1019,5 hPa 0,0 l/m 0 min 0 min 69 W/m 41,8 km/h (6 Bft) 97,87 %
22.02.2020 09:40 8,8 C 8,3 C 7,8 C 61 % 1019,4 hPa 0,0 l/m 0 min 0 min 69 W/m 41,8 km/h (6 Bft) 95,74 %
22.02.2020 09:42 8,8 C 8,3 C 7,8 C 60 % 1019,4 hPa 0,0 l/m 0 min 0 min 67 W/m 54,7 km/h (7 Bft) 95,65 %
22.02.2020 09:44 8,8 C 8,3 C 7,8 C 61 % 1019,4 hPa 0,0 l/m 0 min 0 min 67 W/m 35,4 km/h (5 Bft) 100,00 %
22.02.2020 09:46 8,8 C 8,3 C 7,8 C 61 % 1019,4 hPa 0,0 l/m 0 min 0 min 65 W/m 35,4 km/h (5 Bft) 97,87 %
22.02.2020 09:48 8,8 C 8,3 C 7,8 C 61 % 1019,3 hPa 0,0 l/m 0 min 0 min 72 W/m 35,4 km/h (5 Bft) 100,00 %
22.02.2020 09:50 8,8 C 8,3 C 7,8 C 61 % 1019,4 hPa 0,0 l/m 0 min 0 min 76 W/m 35,4 km/h (5 Bft) 95,74 %
22.02.2020 09:52 8,9 C 8,3 C 7,8 C 61 % 1019,4 hPa 0,0 l/m 0 min 0 min 74 W/m 25,7 km/h (4 Bft) 31,03 %
22.02.2020 09:54 8,9 C 8,3 C 7,8 C 60 % 1019,3 hPa 0,0 l/m 0 min 0 min 75 W/m 45,1 km/h (6 Bft) 95,65 %
22.02.2020 09:56 8,9 C 8,3 C 7,8 C 61 % 1019,3 hPa 0,0 l/m 0 min 0 min 79 W/m 32,2 km/h (5 Bft) 97,87 %
22.02.2020 09:58 8,9 C 8,3 C 7,8 C 61 % 1019,5 hPa 0,0 l/m 0 min 0 min 80 W/m 51,5 km/h (7 Bft) 97,87 %
22.02.2020 10:00 8,9 C 8,3 C 7,8 C 61 % 1019,5 hPa 0,0 l/m 0 min 0 min 75 W/m 45,1 km/h (6 Bft) 97,87 %
22.02.2020 10:02 8,9 C 8,3 C 7,8 C 61 % 1019,5 hPa 0,0 l/m 0 min 0 min 76 W/m 45,1 km/h (6 Bft) 97,87 %
22.02.2020 10:04 9,0 C 8,3 C 7,8 C 61 % 1019,7 hPa 0,0 l/m 0 min 0 min 75 W/m 32,2 km/h (5 Bft) 97,87 %
22.02.2020 10:06 8,9 C 8,3 C 7,8 C 62 % 1019,7 hPa 0,0 l/m 0 min 0 min 67 W/m 32,2 km/h (5 Bft) 97,83 %
22.02.2020 10:08 9,0 C 8,3 C 7,8 C 61 % 1019,5 hPa 0,0 l/m 0 min 0 min 66 W/m 45,1 km/h (6 Bft) 97,87 %
22.02.2020 10:10 9,0 C 8,3 C 7,8 C 61 % 1019,5 hPa 0,0 l/m 0 min 0 min 70 W/m 29,0 km/h (5 Bft) 97,87 %
22.02.2020 10:12 9,0 C 8,3 C 7,8 C 61 % 1019,5 hPa 0,0 l/m 0 min 0 min 78 W/m 35,4 km/h (5 Bft) 97,87 %
22.02.2020 10:14 9,0 C 8,3 C 7,8 C 61 % 1019,5 hPa 0,0 l/m 0 min 0 min 97 W/m 29,0 km/h (5 Bft) 97,87 %
22.02.2020 10:16 9,0 C 8,9 C 7,8 C 62 % 1019,3 hPa 0,0 l/m 0 min 0 min 114 W/m 29,0 km/h (5 Bft) 100,00 %
22.02.2020 10:18 9,0 C 8,9 C 8,3 C 61 % 1019,3 hPa 0,0 l/m 0 min 0 min 104 W/m 29,0 km/h (5 Bft) 97,87 %
22.02.2020 10:20 9,0 C 8,9 C 7,8 C 61 % 1019,2 hPa 0,0 l/m 0 min 0 min 93 W/m 29,0 km/h (5 Bft) 97,87 %
22.02.2020 10:22 9,1 C 8,9 C 7,8 C 61 % 1019,2 hPa 0,0 l/m 0 min 0 min 84 W/m 41,8 km/h (6 Bft) 97,87 %
22.02.2020 10:24 9,1 C 8,9 C 7,8 C 61 % 1019,3 hPa 0,0 l/m 0 min 0 min 75 W/m 35,4 km/h (5 Bft) 97,87 %
22.02.2020 10:26 9,1 C 8,3 C 7,8 C 62 % 1019,3 hPa 0,0 l/m 0 min 0 min 69 W/m 38,6 km/h (5 Bft) 95,74 %
22.02.2020 10:28 9,1 C 8,3 C 7,8 C 62 % 1019,2 hPa 0,0 l/m 0 min 0 min 69 W/m 29,0 km/h (5 Bft) 100,00 %
22.02.2020 10:30 9,1 C 8,3 C 7,8 C 62 % 1019,3 hPa 0,0 l/m 0 min 0 min 69 W/m 48,3 km/h (6 Bft) 100,00 %
22.02.2020 10:32 9,1 C 8,3 C 7,8 C 62 % 1019,3 hPa 0,0 l/m 0 min 0 min 64 W/m 38,6 km/h (5 Bft) 97,87 %
22.02.2020 10:34 9,1 C 8,3 C 7,8 C 62 % 1019,2 hPa 0,0 l/m 0 min 0 min 59 W/m 29,0 km/h (5 Bft) 100,00 %
22.02.2020 10:36 9,1 C 8,3 C 7,8 C 62 % 1019,3 hPa 0,0 l/m 0 min 0 min 53 W/m 32,2 km/h (5 Bft) 100,00 %
22.02.2020 10:38 9,1 C 8,3 C 7,8 C 63 % 1019,4 hPa 0,0 l/m 0 min 0 min 51 W/m 25,7 km/h (4 Bft) 95,74 %
22.02.2020 10:40 9,1 C 8,3 C 7,8 C 63 % 1019,3 hPa 0,0 l/m 0 min 0 min 54 W/m 45,1 km/h (6 Bft) 100,00 %
22.02.2020 10:42 9,1 C 8,3 C 7,8 C 63 % 1019,6 hPa 0,0 l/m 0 min 0 min 67 W/m 29,0 km/h (5 Bft) 97,87 %
22.02.2020 10:44 9,1 C 8,3 C 7,8 C 63 % 1019,5 hPa 0,0 l/m 0 min 0 min 84 W/m 29,0 km/h (5 Bft) 95,74 %
22.02.2020 10:46 9,1 C 8,9 C 7,8 C 63 % 1019,6 hPa 0,0 l/m 0 min 0 min 91 W/m 19,3 km/h (3 Bft) 97,87 %
22.02.2020 10:48 9,1 C 8,9 C 7,8 C 63 % 1019,5 hPa 0,0 l/m 0 min 0 min 93 W/m 29,0 km/h (5 Bft) 100,00 %
22.02.2020 10:50 9,1 C 8,9 C 7,8 C 63 % 1019,5 hPa 0,0 l/m 0 min 0 min 87 W/m 25,7 km/h (4 Bft) 97,87 %
22.02.2020 10:52 9,1 C 8,9 C 7,8 C 63 % 1019,5 hPa 0,0 l/m 0 min 0 min 85 W/m 41,8 km/h (6 Bft) 95,65 %
22.02.2020 10:54 9,1 C 8,9 C 7,8 C 63 % 1019,5 hPa 0,0 l/m 0 min 0 min 77 W/m 32,2 km/h (5 Bft) 97,87 %
22.02.2020 10:56 9,1 C 8,9 C 7,8 C 63 % 1019,5 hPa 0,0 l/m 0 min 0 min 76 W/m 41,8 km/h (6 Bft) 97,87 %
22.02.2020 10:58 9,1 C 8,9 C 8,3 C 63 % 1019,4 hPa 0,0 l/m 0 min 0 min 80 W/m 19,3 km/h (3 Bft) 97,87 %
22.02.2020 11:00 9,1 C 8,9 C 8,3 C 63 % 1019,6 hPa 0,0 l/m 0 min 0 min 82 W/m 35,4 km/h (5 Bft) 97,87 %
22.02.2020 11:02 9,1 C 8,9 C 8,3 C 63 % 1019,4 hPa 0,0 l/m 0 min 0 min 85 W/m 25,7 km/h (4 Bft) 95,65 %
22.02.2020 11:04 9,1 C 8,9 C 8,3 C 63 % 1019,4 hPa 0,0 l/m 0 min 0 min 89 W/m 45,1 km/h (6 Bft) 97,87 %
22.02.2020 11:06 9,2 C 8,9 C 8,3 C 63 % 1019,4 hPa 0,0 l/m 0 min 0 min 85 W/m 35,4 km/h (5 Bft) 97,87 %
22.02.2020 11:08 9,2 C 8,9 C 8,3 C 63 % 1019,3 hPa 0,0 l/m 0 min 0 min 86 W/m 32,2 km/h (5 Bft) 97,87 %
22.02.2020 11:10 9,2 C 8,9 C 8,3 C 64 % 1019,4 hPa 0,0 l/m 0 min 0 min 90 W/m 29,0 km/h (5 Bft) 97,87 %
22.02.2020 11:12 9,2 C 8,9 C 8,3 C 64 % 1019,3 hPa 0,0 l/m 0 min 0 min 92 W/m 45,1 km/h (6 Bft) 97,87 %
22.02.2020 11:14 9,2 C 8,9 C 8,3 C 64 % 1019,2 hPa 0,0 l/m 0 min 0 min 101 W/m 29,0 km/h (5 Bft) 97,87 %
22.02.2020 11:16 9,2 C 8,9 C 8,3 C 64 % 1019,2 hPa 0,0 l/m 0 min 0 min 108 W/m 35,4 km/h (5 Bft) 97,83 %
22.02.2020 11:18 9,2 C 8,9 C 8,3 C 64 % 1019,3 hPa 0,0 l/m 0 min 0 min 112 W/m 25,7 km/h (4 Bft) 97,87 %
22.02.2020 11:20 9,2 C 8,9 C 8,3 C 65 % 1019,3 hPa 0,0 l/m 0 min 0 min 115 W/m 25,7 km/h (4 Bft) 95,74 %
22.02.2020 11:22 9,2 C 8,9 C 8,3 C 65 % 1019,4 hPa 0,0 l/m 0 min 0 min 116 W/m 29,0 km/h (5 Bft) 97,87 %
22.02.2020 11:24 9,2 C 8,9 C 8,3 C 65 % 1019,4 hPa 0,0 l/m 0 min 0 min 115 W/m 25,7 km/h (4 Bft) 97,87 %
22.02.2020 11:26 9,2 C 8,9 C 8,3 C 65 % 1019,7 hPa 0,0 l/m 0 min 0 min 115 W/m 22,5 km/h (4 Bft) 97,83 %
22.02.2020 11:28 9,2 C 8,9 C 8,3 C 65 % 1019,6 hPa 0,0 l/m 0 min 0 min 119 W/m 25,7 km/h (4 Bft) 97,87 %
22.02.2020 11:30 9,2 C 8,9 C 8,3 C 66 % 1019,7 hPa 0,0 l/m 0 min 0 min 128 W/m 25,7 km/h (4 Bft) 97,87 %
22.02.2020 11:32 9,2 C 8,9 C 8,3 C 66 % 1019,9 hPa 0,0 l/m 0 min 0 min 133 W/m 32,2 km/h (5 Bft) 89,36 %
22.02.2020 11:34 9,2 C 8,9 C 8,3 C 66 % 1019,9 hPa 0,0 l/m 0 min 0 min 122 W/m 22,5 km/h (4 Bft) 100,00 %
22.02.2020 11:36 9,2 C 8,9 C 8,3 C 67 % 1020,0 hPa 0,0 l/m 0 min 0 min 115 W/m 22,5 km/h (4 Bft) 97,87 %
22.02.2020 11:38 9,2 C 8,9 C 8,3 C 67 % 1019,9 hPa 0,0 l/m 0 min 0 min 117 W/m 29,0 km/h (5 Bft) 97,83 %
22.02.2020 11:40 9,2 C 8,9 C 8,3 C 67 % 1019,9 hPa 0,0 l/m 0 min 2 min 129 W/m 25,7 km/h (4 Bft) 100,00 %
22.02.2020 11:42 9,3 C 9,4 C 8,3 C 67 % 1019,7 hPa 0,0 l/m 0 min 0 min 161 W/m 35,4 km/h (5 Bft) 100,00 %
22.02.2020 11:44 9,3 C 9,4 C 8,9 C 68 % 1019,6 hPa 0,0 l/m 0 min 0 min 177 W/m 41,8 km/h (6 Bft) 100,00 %
22.02.2020 11:46 9,3 C 9,4 C 8,9 C 68 % 1019,7 hPa 0,0 l/m 0 min 0 min 172 W/m 38,6 km/h (5 Bft) 100,00 %
22.02.2020 11:48 9,3 C 9,4 C 8,9 C 68 % 1019,5 hPa 0,0 l/m 0 min 0 min 155 W/m 38,6 km/h (5 Bft) 100,00 %
22.02.2020 11:50 9,3 C 9,4 C 8,9 C 69 % 1019,6 hPa 0,0 l/m 0 min 0 min 142 W/m 32,2 km/h (5 Bft) 100,00 %
22.02.2020 11:52 9,4 C 9,4 C 8,3 C 68 % 1019,6 hPa 0,0 l/m 0 min 0 min 160 W/m 38,6 km/h (5 Bft) 100,00 %
22.02.2020 11:54 9,4 C 8,9 C 8,3 C 69 % 1019,5 hPa 0,0 l/m 0 min 2 min 206 W/m 22,5 km/h (4 Bft) 100,00 %
22.02.2020 11:56 9,4 C 8,9 C 8,3 C 71 % 1019,5 hPa 0,0 l/m 0 min 2 min 226 W/m 29,0 km/h (5 Bft) 100,00 %
22.02.2020 11:58 9,4 C 8,9 C 8,3 C 70 % 1019,4 hPa 0,0 l/m 0 min 2 min 192 W/m 29,0 km/h (5 Bft) 100,00 %
22.02.2020 12:00 9,4 C 8,9 C 8,3 C 70 % 1019,3 hPa 0,0 l/m 0 min 2 min 143 W/m 41,8 km/h (6 Bft) 97,87 %
22.02.2020 12:02 9,4 C 9,4 C 8,3 C 70 % 1019,2 hPa 0,0 l/m 0 min 2 min 135 W/m 29,0 km/h (5 Bft) 100,00 %
22.02.2020 12:04 9,4 C 8,9 C 8,3 C 70 % 1019,1 hPa 0,0 l/m 0 min 0 min 137 W/m 45,1 km/h (6 Bft) 100,00 %
22.02.2020 12:08 9,4 C 8,9 C 8,3 C 70 % 1019,3 hPa 0,0 l/m 0 min 4 min 134 W/m 48,3 km/h (6 Bft) 96,77 %
22.02.2020 12:10 9,4 C 8,9 C 8,3 C 70 % 1019,4 hPa 0,0 l/m 0 min 2 min 125 W/m 41,8 km/h (6 Bft) 97,87 %
22.02.2020 12:12 9,4 C 8,9 C 8,3 C 71 % 1019,5 hPa 0,0 l/m 0 min 0 min 121 W/m 41,8 km/h (6 Bft) 97,87 %
22.02.2020 12:14 9,4 C 8,9 C 8,3 C 71 % 1019,5 hPa 0,0 l/m 0 min 2 min 138 W/m 29,0 km/h (5 Bft) 97,87 %
22.02.2020 12:16 9,4 C 8,9 C 7,8 C 72 % 1019,5 hPa 0,0 l/m 0 min 2 min 147 W/m 25,7 km/h (4 Bft) 97,87 %
22.02.2020 12:18 9,4 C 8,9 C 8,3 C 72 % 1019,6 hPa 0,0 l/m 0 min 2 min 131 W/m 32,2 km/h (5 Bft) 95,65 %
22.02.2020 12:20 9,3 C 8,9 C 8,3 C 72 % 1019,6 hPa 0,0 l/m 0 min 0 min 96 W/m 22,5 km/h (4 Bft) 97,87 %
22.02.2020 12:22 9,4 C 8,9 C 8,3 C 72 % 1019,4 hPa 0,0 l/m 0 min 0 min 105 W/m 29,0 km/h (5 Bft) 95,74 %
22.02.2020 12:24 9,3 C 8,9 C 8,3 C 71 % 1019,3 hPa 0,0 l/m 0 min 0 min 102 W/m 48,3 km/h (6 Bft) 97,87 %
22.02.2020 12:26 9,3 C 8,9 C 8,3 C 72 % 1019,6 hPa 0,0 l/m 0 min 0 min 96 W/m 35,4 km/h (5 Bft) 97,87 %
22.02.2020 12:28 9,3 C 8,9 C 8,3 C 72 % 1019,4 hPa 0,0 l/m 0 min 0 min 146 W/m 35,4 km/h (5 Bft) 95,65 %
22.02.2020 12:30 9,3 C 9,4 C 8,9 C 72 % 1019,5 hPa 0,0 l/m 0 min 0 min 161 W/m 22,5 km/h (4 Bft) 97,87 %
22.02.2020 12:32 9,4 C 9,4 C 8,9 C 72 % 1019,5 hPa 0,0 l/m 0 min 0 min 144 W/m 19,3 km/h (3 Bft) 95,74 %
22.02.2020 12:34 9,4 C 8,9 C 8,3 C 72 % 1019,5 hPa 0,0 l/m 0 min 2 min 118 W/m 32,2 km/h (5 Bft) 95,74 %
22.02.2020 12:36 9,4 C 8,9 C 8,3 C 73 % 1019,5 hPa 0,0 l/m 0 min 2 min 126 W/m 19,3 km/h (3 Bft) 97,87 %
22.02.2020 12:38 9,4 C 8,9 C 7,8 C 73 % 1019,6 hPa 0,0 l/m 0 min 2 min 120 W/m 29,0 km/h (5 Bft) 95,74 %
22.02.2020 12:40 9,4 C 8,9 C 7,8 C 73 % 1019,7 hPa 0,0 l/m 0 min 2 min 114 W/m 22,5 km/h (4 Bft) 95,65 %
22.02.2020 12:42 9,4 C 8,3 C 7,8 C 74 % 1019,6 hPa 0,0 l/m 0 min 0 min 110 W/m 41,8 km/h (6 Bft) 95,74 %
22.02.2020 12:44 9,4 C 8,3 C 7,8 C 74 % 1019,5 hPa 0,0 l/m 0 min 0 min 110 W/m 35,4 km/h (5 Bft) 95,74 %
22.02.2020 12:46 9,4 C 8,9 C 8,3 C 74 % 1019,5 hPa 0,0 l/m 0 min 0 min 119 W/m 41,8 km/h (6 Bft) 95,74 %
22.02.2020 12:48 9,3 C 8,9 C 8,3 C 74 % 1019,5 hPa 0,0 l/m 0 min 0 min 125 W/m 35,4 km/h (5 Bft) 95,74 %
22.02.2020 12:50 9,3 C 8,9 C 8,3 C 74 % 1019,5 hPa 0,0 l/m 0 min 0 min 117 W/m 32,2 km/h (5 Bft) 95,74 %
22.02.2020 12:52 9,3 C 8,9 C 8,3 C 74 % 1019,5 hPa 0,0 l/m 0 min 0 min 114 W/m 29,0 km/h (5 Bft) 93,48 %
22.02.2020 12:54 9,3 C 8,9 C 8,3 C 74 % 1019,7 hPa 0,0 l/m 0 min 0 min 113 W/m 29,0 km/h (5 Bft) 95,74 %
22.02.2020 12:56 9,3 C 9,4 C 8,3 C 74 % 1019,6 hPa 0,0 l/m 0 min 0 min 121 W/m 35,4 km/h (5 Bft) 95,74 %
22.02.2020 12:58 9,4 C 9,4 C 8,3 C 74 % 1019,8 hPa 0,0 l/m 0 min 0 min 112 W/m 32,2 km/h (5 Bft) 91,49 %
22.02.2020 13:00 9,4 C 9,4 C 8,3 C 75 % 1019,6 hPa 0,0 l/m 0 min 0 min 123 W/m 35,4 km/h (5 Bft) 97,14 %
22.02.2020 13:02 9,4 C 9,4 C 8,9 C 75 % 1019,5 hPa 0,0 l/m 0 min 0 min 135 W/m 35,4 km/h (5 Bft) 95,74 %
22.02.2020 13:04 9,4 C 9,4 C 8,9 C 75 % 1019,5 hPa 0,0 l/m 0 min 0 min 137 W/m 22,5 km/h (4 Bft) 97,87 %
22.02.2020 13:06 9,4 C 9,4 C 8,9 C 75 % 1019,6 hPa 0,0 l/m 0 min 0 min 135 W/m 25,7 km/h (4 Bft) 97,83 %
22.02.2020 13:08 9,4 C 9,4 C 8,9 C 75 % 1019,6 hPa 0,0 l/m 0 min 0 min 127 W/m 25,7 km/h (4 Bft) 93,62 %
22.02.2020 13:10 9,4 C 9,4 C 8,9 C 75 % 1019,6 hPa 0,0 l/m 0 min 0 min 119 W/m 38,6 km/h (5 Bft) 97,87 %
22.02.2020 13:12 9,4 C 9,4 C 8,9 C 76 % 1019,6 hPa 0,0 l/m 0 min 0 min 114 W/m 45,1 km/h (6 Bft) 97,87 %
22.02.2020 13:14 9,4 C 9,4 C 8,9 C 75 % 1019,7 hPa 0,0 l/m 0 min 0 min 109 W/m 29,0 km/h (5 Bft) 97,87 %
22.02.2020 13:16 9,5 C 9,4 C 8,9 C 75 % 1019,7 hPa 0,0 l/m 0 min 0 min 120 W/m 45,1 km/h (6 Bft) 97,87 %
22.02.2020 13:18 9,5 C 9,4 C 8,9 C 75 % 1019,8 hPa 0,0 l/m 0 min 0 min 138 W/m 25,7 km/h (4 Bft) 97,87 %
22.02.2020 13:20 9,5 C 9,4 C 8,9 C 76 % 1020,1 hPa 0,0 l/m 0 min 0 min 135 W/m 29,0 km/h (5 Bft) 97,83 %
22.02.2020 13:22 9,5 C 9,4 C 8,9 C 76 % 1020,0 hPa 0,0 l/m 0 min 0 min 116 W/m 19,3 km/h (3 Bft) 97,87 %
22.02.2020 13:24 9,6 C 9,4 C 8,9 C 76 % 1020,1 hPa 0,0 l/m 0 min 0 min 98 W/m 29,0 km/h (5 Bft) 93,62 %
22.02.2020 13:26 9,5 C 8,9 C 8,9 C 76 % 1020,4 hPa 0,0 l/m 0 min 0 min 82 W/m 45,1 km/h (6 Bft) 95,74 %
22.02.2020 13:28 9,5 C 8,9 C 8,3 C 76 % 1020,0 hPa 0,0 l/m 0 min 0 min 73 W/m 22,5 km/h (4 Bft) 95,74 %
22.02.2020 13:30 9,5 C 8,9 C 8,3 C 76 % 1020,0 hPa 0,0 l/m 0 min 0 min 80 W/m 35,4 km/h (5 Bft) 97,83 %
22.02.2020 13:32 9,5 C 8,9 C 8,3 C 76 % 1020,0 hPa 0,0 l/m 0 min 0 min 81 W/m 25,7 km/h (4 Bft) 97,87 %
22.02.2020 13:34 9,5 C 8,9 C 8,3 C 77 % 1019,9 hPa 0,0 l/m 0 min 0 min 83 W/m 25,7 km/h (4 Bft) 52,27 %
22.02.2020 13:36 9,5 C 8,9 C 8,3 C 77 % 1020,1 hPa 0,0 l/m 0 min 0 min 73 W/m 29,0 km/h (5 Bft) 97,87 %
22.02.2020 13:38 9,4 C 8,9 C 8,3 C 77 % 1020,1 hPa 0,0 l/m 0 min 0 min 66 W/m 22,5 km/h (4 Bft) 93,62 %
22.02.2020 13:40 9,4 C 8,9 C 8,3 C 77 % 1020,1 hPa 0,0 l/m 0 min 0 min 73 W/m 16,1 km/h (3 Bft) 97,87 %
22.02.2020 13:42 9,4 C 8,9 C 8,3 C 77 % 1020,1 hPa 0,0 l/m 0 min 0 min 82 W/m 19,3 km/h (3 Bft) 95,65 %
22.02.2020 13:44 9,4 C 8,9 C 8,3 C 78 % 1020,3 hPa 0,0 l/m 0 min 0 min 79 W/m 25,7 km/h (4 Bft) 95,74 %
22.02.2020 13:46 9,4 C 8,9 C 8,3 C 78 % 1020,2 hPa 0,0 l/m 0 min 0 min 72 W/m 29,0 km/h (5 Bft) 93,62 %
22.02.2020 13:48 9,4 C 8,9 C 8,3 C 78 % 1020,4 hPa 0,0 l/m 0 min 0 min 61 W/m 25,7 km/h (4 Bft) 97,87 %
22.02.2020 13:50 9,4 C 8,9 C 8,3 C 78 % 1020,3 hPa 0,0 l/m 0 min 0 min 66 W/m 29,0 km/h (5 Bft) 97,87 %
22.02.2020 13:52 9,3 C 8,9 C 8,3 C 78 % 1020,5 hPa 0,0 l/m 0 min 0 min 70 W/m 22,5 km/h (4 Bft) 97,87 %
22.02.2020 13:54 9,3 C 8,9 C 8,3 C 78 % 1020,6 hPa 0,0 l/m 0 min 0 min 63 W/m 25,7 km/h (4 Bft) 97,83 %
22.02.2020 13:56 9,3 C 8,9 C 8,3 C 78 % 1020,4 hPa 0,0 l/m 0 min 0 min 60 W/m 38,6 km/h (5 Bft) 97,87 %
22.02.2020 13:58 9,3 C 8,9 C 8,3 C 79 % 1020,3 hPa 0,0 l/m 0 min 0 min 67 W/m 38,6 km/h (5 Bft) 97,87 %
22.02.2020 14:00 9,3 C 8,9 C 8,3 C 79 % 1020,3 hPa 0,0 l/m 0 min 0 min 61 W/m 25,7 km/h (4 Bft) 97,87 %
22.02.2020 14:02 9,3 C 8,9 C 8,3 C 79 % 1020,4 hPa 0,0 l/m 0 min 0 min 56 W/m 29,0 km/h (5 Bft) 95,74 %
22.02.2020 14:04 9,3 C 8,9 C 8,3 C 79 % 1020,3 hPa 0,0 l/m 0 min 0 min 64 W/m 35,4 km/h (5 Bft) 97,87 %
22.02.2020 14:06 9,3 C 8,9 C 8,3 C 79 % 1020,4 hPa 0,0 l/m 0 min 0 min 74 W/m 35,4 km/h (5 Bft) 95,65 %
22.02.2020 14:08 9,3 C 8,9 C 8,3 C 80 % 1020,3 hPa 0,0 l/m 0 min 0 min 72 W/m 38,6 km/h (5 Bft) 98,31 %
22.02.2020 14:10 9,3 C 8,9 C 8,3 C 80 % 1020,4 hPa 0,0 l/m 0 min 0 min 69 W/m 25,7 km/h (4 Bft) 97,14 %
22.02.2020 14:12 9,3 C 8,9 C 8,3 C 80 % 1020,3 hPa 0,0 l/m 0 min 0 min 65 W/m 22,5 km/h (4 Bft) 95,74 %
22.02.2020 14:14 9,2 C 8,9 C 8,3 C 80 % 1020,5 hPa 0,0 l/m 0 min 0 min 61 W/m 25,7 km/h (4 Bft) 100,00 %
22.02.2020 14:16 9,2 C 8,9 C 8,3 C 80 % 1020,4 hPa 0,0 l/m 0 min 0 min 59 W/m 19,3 km/h (3 Bft) 100,00 %
22.02.2020 14:18 9,2 C 8,9 C 8,3 C 80 % 1020,5 hPa 0,0 l/m 0 min 0 min 63 W/m 32,2 km/h (5 Bft) 100,00 %
22.02.2020 14:20 9,2 C 8,9 C 8,3 C 80 % 1020,6 hPa 0,0 l/m 0 min 0 min 63 W/m 19,3 km/h (3 Bft) 97,87 %
22.02.2020 14:22 9,2 C 8,9 C 8,3 C 81 % 1020,6 hPa 0,0 l/m 0 min 0 min 66 W/m 19,3 km/h (3 Bft) 100,00 %
22.02.2020 14:24 9,2 C 8,9 C 8,3 C 81 % 1020,6 hPa 0,0 l/m 0 min 0 min 65 W/m 19,3 km/h (3 Bft) 100,00 %
22.02.2020 14:26 9,2 C 8,9 C 8,3 C 81 % 1020,5 hPa 0,0 l/m 0 min 0 min 66 W/m 25,7 km/h (4 Bft) 100,00 %
22.02.2020 14:28 9,2 C 8,9 C 8,3 C 81 % 1020,4 hPa 0,0 l/m 0 min 0 min 69 W/m 25,7 km/h (4 Bft) 100,00 %
22.02.2020 14:30 9,2 C 8,9 C 8,3 C 81 % 1020,4 hPa 0,0 l/m 0 min 0 min 62 W/m 29,0 km/h (5 Bft) 100,00 %
22.02.2020 14:32 9,2 C 8,9 C 8,3 C 81 % 1020,4 hPa 0,0 l/m 0 min 0 min 63 W/m 22,5 km/h (4 Bft) 100,00 %
22.02.2020 14:34 9,2 C 8,9 C 8,3 C 82 % 1020,5 hPa 0,0 l/m 0 min 0 min 60 W/m 19,3 km/h (3 Bft) 100,00 %
22.02.2020 14:36 9,2 C 8,9 C 8,3 C 82 % 1020,4 hPa 0,0 l/m 0 min 0 min 56 W/m 29,0 km/h (5 Bft) 97,87 %
22.02.2020 14:38 9,2 C 8,9 C 8,3 C 82 % 1020,4 hPa 0,0 l/m 0 min 0 min 57 W/m 25,7 km/h (4 Bft) 100,00 %
22.02.2020 14:40 9,2 C 8,9 C 8,3 C 82 % 1020,4 hPa 0,0 l/m 0 min 0 min 55 W/m 29,0 km/h (5 Bft) 100,00 %
22.02.2020 14:42 9,2 C 8,9 C 8,3 C 82 % 1020,4 hPa 0,0 l/m 0 min 0 min 56 W/m 32,2 km/h (5 Bft) 97,87 %
22.02.2020 14:44 9,2 C 8,9 C 8,3 C 82 % 1020,3 hPa 0,0 l/m 0 min 0 min 55 W/m 25,7 km/h (4 Bft) 100,00 %
22.02.2020 14:46 9,2 C 8,9 C 8,3 C 82 % 1020,4 hPa 0,0 l/m 0 min 0 min 53 W/m 29,0 km/h (5 Bft) 100,00 %
22.02.2020 14:48 9,2 C 8,9 C 8,3 C 82 % 1020,4 hPa 0,0 l/m 0 min 0 min 54 W/m 22,5 km/h (4 Bft) 97,87 %
22.02.2020 14:50 9,2 C 8,9 C 8,3 C 83 % 1020,5 hPa 0,0 l/m 0 min 0 min 52 W/m 29,0 km/h (5 Bft) 100,00 %
22.02.2020 14:52 9,2 C 8,9 C 8,3 C 83 % 1020,5 hPa 0,0 l/m 0 min 0 min 51 W/m 19,3 km/h (3 Bft) 100,00 %
22.02.2020 14:54 9,2 C 8,9 C 8,3 C 83 % 1020,4 hPa 0,0 l/m 0 min 0 min 52 W/m 22,5 km/h (4 Bft) 93,62 %
22.02.2020 14:56 9,2 C 8,9 C 8,3 C 83 % 1020,6 hPa 0,0 l/m 0 min 0 min 56 W/m 29,0 km/h (5 Bft) 100,00 %
22.02.2020 14:58 9,2 C 8,9 C 8,3 C 83 % 1020,5 hPa 0,0 l/m 0 min 0 min 61 W/m 48,3 km/h (6 Bft) 97,87 %
22.02.2020 15:00 9,3 C 8,9 C 8,3 C 83 % 1020,3 hPa 0,0 l/m 0 min 0 min 77 W/m 35,4 km/h (5 Bft) 100,00 %
22.02.2020 15:02 9,3 C 8,9 C 8,3 C 83 % 1020,3 hPa 0,0 l/m 0 min 0 min 97 W/m 25,7 km/h (4 Bft) 100,00 %
22.02.2020 15:04 9,3 C 8,9 C 8,3 C 83 % 1020,4 hPa 0,0 l/m 0 min 0 min 99 W/m 22,5 km/h (4 Bft) 100,00 %
22.02.2020 15:06 9,3 C 9,4 C 8,9 C 84 % 1020,4 hPa 0,0 l/m 0 min 0 min 101 W/m 16,1 km/h (3 Bft) 100,00 %
22.02.2020 15:08 9,3 C 8,9 C 8,9 C 84 % 1020,4 hPa 0,0 l/m 0 min 0 min 88 W/m 22,5 km/h (4 Bft) 100,00 %
22.02.2020 15:10 9,3 C 9,4 C 8,9 C 84 % 1020,3 hPa 0,0 l/m 0 min 0 min 124 W/m 19,3 km/h (3 Bft) 100,00 %
22.02.2020 15:12 9,4 C 9,4 C 8,9 C 84 % 1020,3 hPa 0,0 l/m 0 min 0 min 135 W/m 38,6 km/h (5 Bft) 97,87 %
22.02.2020 15:14 9,4 C 9,4 C 8,9 C 84 % 1020,4 hPa 0,0 l/m 0 min 0 min 111 W/m 29,0 km/h (5 Bft) 93,62 %
22.02.2020 15:16 9,4 C 9,4 C 8,9 C 84 % 1020,4 hPa 0,0 l/m 0 min 0 min 122 W/m 41,8 km/h (6 Bft) 100,00 %
22.02.2020 15:18 9,4 C 9,4 C 8,9 C 84 % 1020,1 hPa 0,0 l/m 0 min 0 min 124 W/m 25,7 km/h (4 Bft) 97,87 %
22.02.2020 15:20 9,5 C 9,4 C 8,9 C 84 % 1020,1 hPa 0,0 l/m 0 min 0 min 117 W/m 22,5 km/h (4 Bft) 100,00 %
22.02.2020 15:22 9,5 C 9,4 C 8,9 C 84 % 1020,1 hPa 0,0 l/m 0 min 0 min 118 W/m 22,5 km/h (4 Bft) 97,87 %
22.02.2020 15:24 9,6 C 9,4 C 8,9 C 84 % 1020,2 hPa 0,0 l/m 0 min 0 min 113 W/m 25,7 km/h (4 Bft) 97,87 %
22.02.2020 15:26 9,6 C 9,4 C 8,9 C 84 % 1020,0 hPa 0,0 l/m 0 min 0 min 114 W/m 35,4 km/h (5 Bft) 97,83 %
22.02.2020 15:28 9,6 C 9,4 C 8,9 C 84 % 1020,0 hPa 0,0 l/m 0 min 0 min 104 W/m 25,7 km/h (4 Bft) 100,00 %
22.02.2020 15:30 9,6 C 9,4 C 8,9 C 84 % 1020,0 hPa 0,0 l/m 0 min 0 min 91 W/m 41,8 km/h (6 Bft) 100,00 %
22.02.2020 15:32 9,6 C 9,4 C 8,9 C 84 % 1020,0 hPa 0,0 l/m 0 min 0 min 90 W/m 25,7 km/h (4 Bft) 95,74 %
22.02.2020 15:34 9,6 C 9,4 C 8,9 C 84 % 1020,0 hPa 0,0 l/m 0 min 0 min 81 W/m 29,0 km/h (5 Bft) 97,87 %
22.02.2020 15:36 9,6 C 9,4 C 8,9 C 84 % 1020,0 hPa 0,0 l/m 0 min 0 min 81 W/m 48,3 km/h (6 Bft) 95,74 %
22.02.2020 15:38 9,7 C 9,4 C 8,9 C 84 % 1020,0 hPa 0,0 l/m 0 min 0 min 73 W/m 22,5 km/h (4 Bft) 95,65 %
22.02.2020 15:40 9,7 C 9,4 C 8,9 C 84 % 1019,9 hPa 0,0 l/m 0 min 0 min 85 W/m 35,4 km/h (5 Bft) 95,74 %
22.02.2020 15:42 9,7 C 9,4 C 8,9 C 84 % 1020,0 hPa 0,0 l/m 0 min 0 min 83 W/m 45,1 km/h (6 Bft) 95,74 %
22.02.2020 15:44 9,7 C 9,4 C 8,9 C 85 % 1020,1 hPa 0,0 l/m 0 min 0 min 87 W/m 19,3 km/h (3 Bft) 95,74 %
22.02.2020 15:46 9,7 C 9,4 C 8,9 C 85 % 1020,0 hPa 0,0 l/m 0 min 0 min 93 W/m 38,6 km/h (5 Bft) 95,74 %
22.02.2020 15:48 9,7 C 9,4 C 8,9 C 85 % 1020,0 hPa 0,0 l/m 0 min 0 min 87 W/m 19,3 km/h (3 Bft) 95,74 %
22.02.2020 15:50 9,7 C 9,4 C 8,9 C 85 % 1020,0 hPa 0,0 l/m 0 min 0 min 83 W/m 22,5 km/h (4 Bft) 95,65 %
22.02.2020 15:52 9,7 C 9,4 C 8,9 C 85 % 1019,9 hPa 0,0 l/m 0 min 0 min 77 W/m 45,1 km/h (6 Bft) 97,87 %
22.02.2020 15:54 9,7 C 9,4 C 8,9 C 85 % 1019,9 hPa 0,0 l/m 0 min 0 min 61 W/m 38,6 km/h (5 Bft) 93,62 %
22.02.2020 15:56 9,8 C 9,4 C 8,9 C 85 % 1020,0 hPa 0,0 l/m 0 min 0 min 59 W/m 29,0 km/h (5 Bft) 91,49 %
22.02.2020 15:58 9,8 C 9,4 C 8,9 C 85 % 1020,0 hPa 0,0 l/m 0 min 0 min 65 W/m 22,5 km/h (4 Bft) 95,74 %
22.02.2020 16:00 9,8 C 9,4 C 8,9 C 85 % 1020,0 hPa 0,0 l/m 0 min 0 min 66 W/m 35,4 km/h (5 Bft) 95,74 %
22.02.2020 16:02 9,8 C 9,4 C 8,9 C 85 % 1020,0 hPa 0,0 l/m 0 min 0 min 53 W/m 19,3 km/h (3 Bft) 95,65 %
22.02.2020 16:04 9,8 C 9,4 C 8,9 C 85 % 1020,1 hPa 0,0 l/m 0 min 0 min 39 W/m 19,3 km/h (3 Bft) 91,49 %
22.02.2020 16:06 9,8 C 9,4 C 8,9 C 86 % 1020,1 hPa 0,0 l/m 0 min 0 min 42 W/m 38,6 km/h (5 Bft) 91,49 %
22.02.2020 16:08 9,8 C 9,4 C 8,9 C 86 % 1019,9 hPa 0,0 l/m 0 min 0 min 38 W/m 22,5 km/h (4 Bft) 93,62 %
22.02.2020 16:10 9,8 C 9,4 C 8,9 C 86 % 1020,0 hPa 0,0 l/m 0 min 0 min 37 W/m 41,8 km/h (6 Bft) 93,62 %
22.02.2020 16:12 9,8 C 9,4 C 8,9 C 86 % 1019,9 hPa 0,0 l/m 0 min 0 min 41 W/m 48,3 km/h (6 Bft) 93,62 %
22.02.2020 16:14 9,8 C 9,4 C 8,9 C 86 % 1019,9 hPa 0,0 l/m 0 min 0 min 39 W/m 38,6 km/h (5 Bft) 93,48 %
22.02.2020 16:16 9,8 C 9,4 C 8,9 C 86 % 1019,9 hPa 0,0 l/m 0 min 0 min 36 W/m 41,8 km/h (6 Bft) 95,74 %
22.02.2020 16:18 9,8 C 9,4 C 8,9 C 86 % 1019,9 hPa 0,0 l/m 0 min 0 min 35 W/m 22,5 km/h (4 Bft) 93,62 %
22.02.2020 16:20 9,8 C 8,9 C 8,9 C 86 % 1019,9 hPa 0,0 l/m 0 min 0 min 29 W/m 41,8 km/h (6 Bft) 91,49 %
22.02.2020 16:22 9,8 C 8,9 C 8,9 C 86 % 1019,9 hPa 0,0 l/m 0 min 0 min 28 W/m 29,0 km/h (5 Bft) 93,62 %
22.02.2020 16:24 9,8 C 8,9 C 8,9 C 86 % 1019,8 hPa 0,0 l/m 0 min 0 min 27 W/m 22,5 km/h (4 Bft) 89,36 %
22.02.2020 16:26 9,7 C 8,9 C 8,9 C 86 % 1019,8 hPa 0,0 l/m 0 min 0 min 20 W/m 22,5 km/h (4 Bft) 93,48 %
22.02.2020 16:28 9,8 C 8,9 C 8,3 C 86 % 1020,0 hPa 0,0 l/m 0 min 0 min 20 W/m 22,5 km/h (4 Bft) 95,74 %
22.02.2020 16:30 9,7 C 8,9 C 8,9 C 86 % 1020,0 hPa 0,0 l/m 0 min 0 min 21 W/m 32,2 km/h (5 Bft) 95,74 %
22.02.2020 16:32 9,7 C 8,9 C 8,9 C 86 % 1020,0 hPa 0,0 l/m 0 min 0 min 19 W/m 38,6 km/h (5 Bft) 95,74 %
22.02.2020 16:34 9,7 C 8,9 C 8,3 C 86 % 1020,0 hPa 0,0 l/m 0 min 0 min 17 W/m 41,8 km/h (6 Bft) 97,87 %
22.02.2020 16:36 9,7 C 8,9 C 8,3 C 87 % 1020,0 hPa 0,0 l/m 0 min 0 min 21 W/m 22,5 km/h (4 Bft) 95,65 %
22.02.2020 16:38 9,7 C 8,9 C 8,3 C 87 % 1019,8 hPa 0,0 l/m 0 min 0 min 24 W/m 38,6 km/h (5 Bft) 95,74 %
22.02.2020 16:40 9,7 C 8,9 C 8,3 C 87 % 1020,1 hPa 0,0 l/m 0 min 0 min 16 W/m 29,0 km/h (5 Bft) 97,87 %
22.02.2020 16:42 9,7 C 8,9 C 8,3 C 87 % 1020,3 hPa 0,0 l/m 0 min 0 min 16 W/m 48,3 km/h (6 Bft) 93,62 %
22.02.2020 16:44 9,7 C 8,9 C 8,3 C 87 % 1020,1 hPa 0,0 l/m 0 min 0 min 23 W/m 35,4 km/h (5 Bft) 93,62 %
22.02.2020 16:46 9,7 C 8,9 C 8,3 C 87 % 1020,1 hPa 0,0 l/m 0 min 0 min 22 W/m 29,0 km/h (5 Bft) 97,87 %
22.02.2020 16:48 9,7 C 8,9 C 8,3 C 87 % 1020,1 hPa 0,0 l/m 0 min 0 min 18 W/m 41,8 km/h (6 Bft) 97,83 %
22.02.2020 16:50 9,7 C 8,9 C 8,3 C 87 % 1020,2 hPa 0,0 l/m 0 min 0 min 19 W/m 45,1 km/h (6 Bft) 95,74 %
22.02.2020 16:52 9,7 C 8,9 C 8,3 C 87 % 1020,1 hPa 0,0 l/m 0 min 0 min 20 W/m 48,3 km/h (6 Bft) 100,00 %
22.02.2020 16:54 9,6 C 8,9 C 8,3 C 87 % 1020,1 hPa 0,0 l/m 0 min 0 min 16 W/m 29,0 km/h (5 Bft) 97,87 %
22.02.2020 16:56 9,6 C 8,9 C 8,3 C 87 % 1020,3 hPa 0,0 l/m 0 min 0 min 15 W/m 29,0 km/h (5 Bft) 100,00 %
22.02.2020 16:58 9,6 C 8,9 C 8,3 C 87 % 1020,2 hPa 0,0 l/m 0 min 0 min 12 W/m 35,4 km/h (5 Bft) 100,00 %
22.02.2020 17:00 9,6 C 8,9 C 8,3 C 87 % 1020,2 hPa 0,0 l/m 0 min 0 min 12 W/m 45,1 km/h (6 Bft) 100,00 %
22.02.2020 17:02 9,6 C 8,9 C 8,3 C 88 % 1020,2 hPa 0,0 l/m 0 min 0 min 14 W/m 22,5 km/h (4 Bft) 97,87 %
22.02.2020 17:04 9,6 C 8,9 C 8,3 C 88 % 1020,1 hPa 0,0 l/m 0 min 0 min 16 W/m 35,4 km/h (5 Bft) 100,00 %
22.02.2020 17:06 9,6 C 8,9 C 8,3 C 88 % 1020,1 hPa 0,0 l/m 0 min 0 min 15 W/m 38,6 km/h (5 Bft) 100,00 %
22.02.2020 17:08 9,6 C 8,9 C 8,3 C 88 % 1020,0 hPa 0,0 l/m 0 min 0 min 14 W/m 35,4 km/h (5 Bft) 100,00 %
22.02.2020 17:10 9,6 C 8,9 C 8,3 C 88 % 1019,7 hPa 0,0 l/m 0 min 0 min 12 W/m 29,0 km/h (5 Bft) 100,00 %
22.02.2020 17:12 9,5 C 8,9 C 8,3 C 88 % 1019,7 hPa 0,0 l/m 0 min 0 min 11 W/m 38,6 km/h (5 Bft) 100,00 %
22.02.2020 17:14 9,6 C 8,9 C 8,3 C 88 % 1019,7 hPa 0,0 l/m 0 min 0 min 11 W/m 32,2 km/h (5 Bft) 100,00 %
22.02.2020 17:16 9,5 C 8,9 C 8,3 C 88 % 1019,7 hPa 0,0 l/m 0 min 0 min 11 W/m 32,2 km/h (5 Bft) 97,87 %
22.02.2020 17:18 9,6 C 8,9 C 8,3 C 88 % 1019,9 hPa 0,0 l/m 0 min 0 min 10 W/m 29,0 km/h (5 Bft) 100,00 %
22.02.2020 17:20 9,5 C 8,9 C 8,3 C 88 % 1019,8 hPa 0,0 l/m 0 min 0 min 10 W/m 38,6 km/h (5 Bft) 100,00 %
22.02.2020 17:22 9,6 C 8,9 C 8,3 C 88 % 1019,9 hPa 0,0 l/m 0 min 0 min 9 W/m 32,2 km/h (5 Bft) 100,00 %
22.02.2020 17:24 9,6 C 8,9 C 8,3 C 88 % 1020,0 hPa 0,0 l/m 0 min 0 min 9 W/m 32,2 km/h (5 Bft) 100,00 %
22.02.2020 17:26 9,6 C 8,9 C 8,3 C 88 % 1019,9 hPa 0,0 l/m 0 min 0 min 9 W/m 19,3 km/h (3 Bft) 100,00 %
22.02.2020 17:28 9,6 C 8,9 C 8,3 C 89 % 1019,9 hPa 0,0 l/m 0 min 0 min 11 W/m 22,5 km/h (4 Bft) 100,00 %
22.02.2020 17:30 9,6 C 8,9 C 8,3 C 89 % 1020,0 hPa 0,0 l/m 0 min 0 min 11 W/m 22,5 km/h (4 Bft) 100,00 %
22.02.2020 17:32 9,6 C 8,9 C 8,3 C 89 % 1020,1 hPa 0,0 l/m 0 min 0 min 8 W/m 22,5 km/h (4 Bft) 100,00 %
22.02.2020 17:34 9,6 C 8,9 C 8,3 C 89 % 1020,1 hPa 0,0 l/m 0 min 0 min 6 W/m 22,5 km/h (4 Bft) 100,00 %
22.02.2020 17:36 9,6 C 8,9 C 8,3 C 89 % 1020,3 hPa 0,0 l/m 0 min 0 min 5 W/m 35,4 km/h (5 Bft) 97,87 %
22.02.2020 17:38 9,6 C 8,9 C 8,3 C 89 % 1020,5 hPa 0,0 l/m 0 min 0 min 4 W/m 38,6 km/h (5 Bft) 100,00 %
22.02.2020 17:40 9,6 C 8,9 C 8,3 C 89 % 1020,2 hPa 0,0 l/m 0 min 0 min 0 W/m 35,4 km/h (5 Bft) 93,62 %
22.02.2020 17:42 9,6 C 8,9 C 8,3 C 89 % 1020,2 hPa 0,0 l/m 0 min 0 min 0 W/m 41,8 km/h (6 Bft) 95,74 %
22.02.2020 17:44 9,7 C 8,9 C 8,3 C 89 % 1020,2 hPa 0,0 l/m 0 min 0 min 0 W/m 35,4 km/h (5 Bft) 100,00 %
22.02.2020 17:46 9,7 C 8,9 C 8,3 C 89 % 1020,2 hPa 0,0 l/m 0 min 0 min 0 W/m 38,6 km/h (5 Bft) 100,00 %
22.02.2020 17:48 9,7 C 8,9 C 8,3 C 89 % 1020,2 hPa 0,0 l/m 0 min 0 min 0 W/m 25,7 km/h (4 Bft) 100,00 %
22.02.2020 17:50 9,7 C 8,9 C 8,3 C 89 % 1020,2 hPa 0,0 l/m 0 min 0 min 0 W/m 22,5 km/h (4 Bft) 97,87 %
22.02.2020 17:52 9,7 C 8,9 C 8,3 C 89 % 1020,3 hPa 0,0 l/m 0 min 0 min 0 W/m 29,0 km/h (5 Bft) 100,00 %
22.02.2020 17:54 9,7 C 8,9 C 8,3 C 89 % 1020,5 hPa 0,0 l/m 0 min 0 min 0 W/m 19,3 km/h (3 Bft) 100,00 %
22.02.2020 17:56 9,7 C 8,9 C 8,3 C 89 % 1020,3 hPa 0,0 l/m 0 min 0 min 0 W/m 35,4 km/h (5 Bft) 100,00 %
22.02.2020 17:58 9,7 C 8,9 C 8,3 C 89 % 1020,3 hPa 0,0 l/m 0 min 0 min 0 W/m 29,0 km/h (5 Bft) 100,00 %
22.02.2020 18:00 9,7 C 8,9 C 8,3 C 89 % 1020,4 hPa 0,0 l/m 0 min 0 min 0 W/m 29,0 km/h (5 Bft) 100,00 %
22.02.2020 18:02 9,7 C 8,9 C 8,3 C 89 % 1020,5 hPa 0,0 l/m 0 min 0 min 0 W/m 19,3 km/h (3 Bft) 100,00 %
22.02.2020 18:04 9,7 C 8,9 C 8,3 C 89 % 1020,5 hPa 0,0 l/m 0 min 0 min 0 W/m 25,7 km/h (4 Bft) 100,00 %
22.02.2020 18:08 9,7 C 8,9 C 8,3 C 89 % 1020,5 hPa 0,0 l/m 0 min 0 min 0 W/m 32,2 km/h (5 Bft) 100,00 %
22.02.2020 18:10 9,7 C 8,9 C 8,3 C 89 % 1020,6 hPa 0,0 l/m 0 min 0 min 0 W/m 25,7 km/h (4 Bft) 100,00 %
22.02.2020 18:12 9,7 C 8,9 C 8,3 C 89 % 1020,5 hPa 0,0 l/m 0 min 0 min 0 W/m 32,2 km/h (5 Bft) 100,00 %
22.02.2020 18:14 9,7 C 8,9 C 8,3 C 89 % 1020,5 hPa 0,0 l/m 0 min 0 min 0 W/m 22,5 km/h (4 Bft) 100,00 %
22.02.2020 18:16 9,7 C 8,9 C 8,3 C 89 % 1020,5 hPa 0,0 l/m 0 min 0 min 0 W/m 35,4 km/h (5 Bft) 100,00 %
22.02.2020 18:18 9,7 C 8,9 C 8,3 C 89 % 1020,6 hPa 0,0 l/m 0 min 0 min 0 W/m 35,4 km/h (5 Bft) 97,87 %
22.02.2020 18:20 9,7 C 8,9 C 8,3 C 89 % 1020,7 hPa 0,0 l/m 0 min 0 min 0 W/m 35,4 km/h (5 Bft) 100,00 %
22.02.2020 18:22 9,7 C 8,9 C 8,3 C 90 % 1020,7 hPa 0,0 l/m 0 min 0 min 0 W/m 29,0 km/h (5 Bft) 100,00 %
22.02.2020 18:24 9,6 C 8,9 C 8,3 C 90 % 1020,7 hPa 0,0 l/m 0 min 0 min 0 W/m 19,3 km/h (3 Bft) 100,00 %
22.02.2020 18:26 9,7 C 8,9 C 8,3 C 90 % 1020,7 hPa 0,0 l/m 0 min 0 min 0 W/m 48,3 km/h (6 Bft) 97,87 %
22.02.2020 18:28 9,6 C 8,9 C 8,3 C 90 % 1020,8 hPa 0,0 l/m 0 min 0 min 0 W/m 32,2 km/h (5 Bft) 97,87 %
22.02.2020 18:30 9,6 C 8,9 C 8,3 C 90 % 1020,7 hPa 0,0 l/m 0 min 0 min 0 W/m 19,3 km/h (3 Bft) 100,00 %
22.02.2020 18:32 9,6 C 8,9 C 8,3 C 90 % 1020,7 hPa 0,0 l/m 0 min 0 min 0 W/m 16,1 km/h (3 Bft) 100,00 %
22.02.2020 18:34 9,6 C 8,9 C 8,3 C 90 % 1020,8 hPa 0,0 l/m 0 min 0 min 0 W/m 19,3 km/h (3 Bft) 97,87 %
22.02.2020 18:36 9,6 C 8,9 C 8,3 C 90 % 1020,8 hPa 0,0 l/m 0 min 0 min 0 W/m 29,0 km/h (5 Bft) 97,87 %
22.02.2020 18:38 9,6 C 8,9 C 8,3 C 91 % 1020,7 hPa 0,0 l/m 0 min 0 min 0 W/m 19,3 km/h (3 Bft) 97,87 %
22.02.2020 18:40 9,6 C 8,9 C 8,3 C 91 % 1020,8 hPa 0,0 l/m 0 min 0 min 0 W/m 22,5 km/h (4 Bft) 97,87 %
22.02.2020 18:42 9,6 C 8,3 C 7,8 C 91 % 1020,9 hPa 0,0 l/m 0 min 0 min 0 W/m 19,3 km/h (3 Bft) 97,87 %
22.02.2020 18:44 9,6 C 7,8 C 7,8 C 91 % 1020,9 hPa 0,0 l/m 0 min 2 min 0 W/m 29,0 km/h (5 Bft) 97,83 %
22.02.2020 18:46 9,6 C 7,8 C 7,8 C 91 % 1020,9 hPa 0,0 l/m 0 min 2 min 0 W/m 41,8 km/h (6 Bft) 95,74 %
22.02.2020 18:48 9,6 C 7,8 C 7,2 C 91 % 1020,9 hPa 0,0 l/m 0 min 2 min 0 W/m 25,7 km/h (4 Bft) 95,74 %
22.02.2020 18:50 9,5 C 7,8 C 7,2 C 92 % 1020,9 hPa 0,0 l/m 0 min 2 min 0 W/m 22,5 km/h (4 Bft) 95,74 %
22.02.2020 18:52 9,5 C 7,8 C 7,2 C 92 % 1020,9 hPa 0,0 l/m 0 min 2 min 0 W/m 32,2 km/h (5 Bft) 95,74 %
22.02.2020 18:54 9,4 C 7,8 C 7,2 C 92 % 1020,9 hPa 0,0 l/m 0 min 2 min 0 W/m 32,2 km/h (5 Bft) 95,74 %
22.02.2020 18:56 9,4 C 7,8 C 7,2 C 92 % 1020,9 hPa 0,0 l/m 0 min 2 min 0 W/m 29,0 km/h (5 Bft) 93,48 %
22.02.2020 18:58 9,4 C 7,8 C 7,2 C 92 % 1021,0 hPa 0,0 l/m 0 min 2 min 0 W/m 19,3 km/h (3 Bft) 93,62 %
22.02.2020 19:00 9,4 C 7,8 C 7,2 C 93 % 1021,0 hPa 0,0 l/m 0 min 2 min 0 W/m 25,7 km/h (4 Bft) 89,36 %
22.02.2020 19:02 9,3 C 7,8 C 7,2 C 93 % 1021,0 hPa 0,0 l/m 0 min 2 min 0 W/m 25,7 km/h (4 Bft) 91,49 %
22.02.2020 19:04 9,3 C 7,8 C 7,2 C 93 % 1020,9 hPa 0,2 l/m 0 min 2 min 0 W/m 25,7 km/h (4 Bft) 93,62 %
22.02.2020 19:06 9,3 C 7,8 C 7,2 C 93 % 1021,1 hPa 0,0 l/m 0 min 2 min 0 W/m 22,5 km/h (4 Bft) 93,62 %
22.02.2020 19:08 9,3 C 7,8 C 7,2 C 93 % 1021,0 hPa 0,0 l/m 0 min 2 min 0 W/m 29,0 km/h (5 Bft) 93,48 %
22.02.2020 19:10 9,3 C 7,8 C 7,2 C 94 % 1021,0 hPa 0,0 l/m 0 min 2 min 0 W/m 16,1 km/h (3 Bft) 91,49 %
22.02.2020 19:12 9,2 C 7,8 C 7,2 C 94 % 1021,0 hPa 0,0 l/m 0 min 2 min 0 W/m 22,5 km/h (4 Bft) 93,62 %
22.02.2020 19:14 9,2 C 7,8 C 7,2 C 94 % 1021,0 hPa 0,0 l/m 0 min 2 min 0 W/m 19,3 km/h (3 Bft) 91,49 %
22.02.2020 19:16 9,2 C 7,8 C 7,2 C 94 % 1021,0 hPa 0,0 l/m 0 min 2 min 0 W/m 25,7 km/h (4 Bft) 65,96 %
22.02.2020 19:18 9,2 C 7,8 C 7,2 C 94 % 1021,0 hPa 0,0 l/m 0 min 2 min 0 W/m 32,2 km/h (5 Bft) 82,93 %
22.02.2020 19:20 9,2 C 7,8 C 7,2 C 94 % 1021,1 hPa 0,0 l/m 0 min 0 min 0 W/m 19,3 km/h (3 Bft) 93,62 %
22.02.2020 19:22 9,2 C 7,8 C 7,2 C 94 % 1021,1 hPa 0,0 l/m 0 min 0 min 0 W/m 16,1 km/h (3 Bft) 95,74 %
22.02.2020 19:24 9,2 C 7,8 C 7,2 C 94 % 1021,1 hPa 0,0 l/m 0 min 0 min 0 W/m 25,7 km/h (4 Bft) 95,74 %
22.02.2020 19:26 9,2 C 7,8 C 7,2 C 95 % 1021,1 hPa 0,0 l/m 0 min 0 min 0 W/m 16,1 km/h (3 Bft) 95,74 %
22.02.2020 19:28 9,2 C 7,8 C 7,2 C 95 % 1021,2 hPa 0,0 l/m 0 min 0 min 0 W/m 16,1 km/h (3 Bft) 95,74 %
22.02.2020 19:30 9,2 C 7,8 C 7,2 C 95 % 1021,2 hPa 0,0 l/m 0 min 2 min 0 W/m 25,7 km/h (4 Bft) 95,65 %
22.02.2020 19:32 9,2 C 7,8 C 7,2 C 95 % 1021,3 hPa 0,0 l/m 0 min 2 min 0 W/m 32,2 km/h (5 Bft) 93,62 %
22.02.2020 19:34 9,2 C 7,8 C 7,2 C 95 % 1021,2 hPa 0,0 l/m 0 min 2 min 0 W/m 12,9 km/h (3 Bft) 93,62 %
22.02.2020 19:36 9,2 C 7,8 C 7,2 C 95 % 1021,2 hPa 0,0 l/m 0 min 2 min 0 W/m 29,0 km/h (5 Bft) 97,87 %
22.02.2020 19:38 9,2 C 7,8 C 7,2 C 95 % 1021,1 hPa 0,0 l/m 0 min 2 min 0 W/m 25,7 km/h (4 Bft) 97,87 %
22.02.2020 19:40 9,2 C 7,8 C 7,2 C 95 % 1021,2 hPa 0,0 l/m 0 min 2 min 0 W/m 35,4 km/h (5 Bft) 93,62 %
22.02.2020 19:42 9,3 C 7,8 C 7,2 C 95 % 1021,2 hPa 0,0 l/m 0 min 2 min 0 W/m 25,7 km/h (4 Bft) 97,83 %
22.02.2020 19:44 9,3 C 7,8 C 7,2 C 95 % 1021,3 hPa 0,0 l/m 0 min 2 min 0 W/m 16,1 km/h (3 Bft) 95,74 %
22.02.2020 19:46 9,3 C 7,8 C 7,2 C 95 % 1021,3 hPa 0,0 l/m 0 min 2 min 0 W/m 19,3 km/h (3 Bft) 95,74 %
22.02.2020 19:48 9,3 C 7,8 C 7,2 C 95 % 1021,3 hPa 0,0 l/m 0 min 2 min 0 W/m 29,0 km/h (5 Bft) 95,74 %
22.02.2020 19:49 9,3 C 7,8 C 7,2 C 95 % 1021,4 hPa 0,0 l/m 0 min 1 min 0 W/m 25,7 km/h (4 Bft) 97,87 %
22.02.2020 19:52 9,3 C 7,8 C 7,2 C 95 % 1021,4 hPa 0,0 l/m 0 min 3 min 0 W/m 19,3 km/h (3 Bft) 97,87 %
22.02.2020 19:54 9,3 C 7,8 C 7,2 C 95 % 1021,4 hPa 0,0 l/m 0 min 2 min 0 W/m 19,3 km/h (3 Bft) 97,83 %
22.02.2020 19:56 9,3 C 7,8 C 7,2 C 95 % 1021,4 hPa 0,0 l/m 0 min 2 min 0 W/m 25,7 km/h (4 Bft) 97,87 %
22.02.2020 19:58 9,3 C 7,8 C 7,2 C 95 % 1021,5 hPa 0,0 l/m 0 min 2 min 0 W/m 22,5 km/h (4 Bft) 97,87 %
22.02.2020 20:00 9,3 C 7,8 C 7,2 C 95 % 1021,5 hPa 0,0 l/m 0 min 2 min 0 W/m 19,3 km/h (3 Bft) 97,87 %
22.02.2020 20:02 9,3 C 7,8 C 7,2 C 95 % 1021,5 hPa 0,2 l/m 0 min 2 min 0 W/m 25,7 km/h (4 Bft) 97,87 %
22.02.2020 20:04 9,3 C 7,8 C 7,2 C 95 % 1021,4 hPa 0,0 l/m 0 min 2 min 0 W/m 22,5 km/h (4 Bft) 91,49 %
22.02.2020 20:06 9,3 C 7,8 C 7,2 C 96 % 1021,5 hPa 0,0 l/m 0 min 2 min 0 W/m 19,3 km/h (3 Bft) 100,00 %
22.02.2020 20:08 9,3 C 7,8 C 7,2 C 96 % 1021,5 hPa 0,0 l/m 0 min 2 min 0 W/m 29,0 km/h (5 Bft) 100,00 %
22.02.2020 20:10 9,3 C 7,8 C 7,2 C 96 % 1021,4 hPa 0,0 l/m 0 min 2 min 0 W/m 19,3 km/h (3 Bft) 100,00 %
22.02.2020 20:12 9,3 C 7,8 C 7,2 C 96 % 1021,5 hPa 0,0 l/m 0 min 2 min 0 W/m 29,0 km/h (5 Bft) 95,74 %
22.02.2020 20:14 9,3 C 7,8 C 7,2 C 96 % 1021,4 hPa 0,2 l/m 0 min 2 min 0 W/m 22,5 km/h (4 Bft) 97,87 %
22.02.2020 20:16 9,3 C 7,8 C 7,2 C 96 % 1021,5 hPa 0,0 l/m 0 min 2 min 0 W/m 22,5 km/h (4 Bft) 100,00 %
22.02.2020 20:18 9,3 C 7,8 C 7,2 C 96 % 1021,5 hPa 0,0 l/m 0 min 2 min 0 W/m 22,5 km/h (4 Bft) 97,87 %
22.02.2020 20:20 9,3 C 7,8 C 7,2 C 96 % 1021,5 hPa 0,0 l/m 0 min 2 min 0 W/m 19,3 km/h (3 Bft) 95,74 %
22.02.2020 20:22 9,3 C 7,8 C 7,2 C 96 % 1021,5 hPa 0,0 l/m 0 min 2 min 0 W/m 12,9 km/h (3 Bft) 95,74 %
22.02.2020 20:24 9,3 C 7,8 C 7,2 C 96 % 1021,4 hPa 0,0 l/m 0 min 2 min 0 W/m 12,9 km/h (3 Bft) 100,00 %
22.02.2020 20:26 9,3 C 7,8 C 7,2 C 96 % 1021,5 hPa 0,0 l/m 0 min 2 min 0 W/m 19,3 km/h (3 Bft) 97,87 %
22.02.2020 20:28 9,3 C 7,8 C 7,8 C 96 % 1021,5 hPa 0,0 l/m 0 min 2 min 0 W/m 25,7 km/h (4 Bft) 100,00 %
22.02.2020 20:30 9,3 C 7,8 C 7,8 C 96 % 1021,5 hPa 0,0 l/m 0 min 2 min 0 W/m 25,7 km/h (4 Bft) 100,00 %
22.02.2020 20:32 9,3 C 7,8 C 7,8 C 96 % 1021,6 hPa 0,0 l/m 0 min 2 min 0 W/m 19,3 km/h (3 Bft) 100,00 %
22.02.2020 20:34 9,3 C 7,8 C 7,8 C 96 % 1021,5 hPa 0,0 l/m 0 min 2 min 0 W/m 16,1 km/h (3 Bft) 100,00 %
22.02.2020 20:36 9,3 C 7,8 C 7,2 C 96 % 1021,5 hPa 0,0 l/m 0 min 2 min 0 W/m 16,1 km/h (3 Bft) 100,00 %
22.02.2020 20:38 9,3 C 7,8 C 7,2 C 96 % 1021,5 hPa 0,0 l/m 0 min 2 min 0 W/m 19,3 km/h (3 Bft) 100,00 %
22.02.2020 20:40 9,3 C 7,8 C 7,2 C 96 % 1021,6 hPa 0,0 l/m 0 min 2 min 0 W/m 22,5 km/h (4 Bft) 100,00 %
22.02.2020 20:42 9,3 C 7,8 C 7,2 C 96 % 1021,5 hPa 0,0 l/m 0 min 2 min 0 W/m 16,1 km/h (3 Bft) 100,00 %
22.02.2020 20:44 9,3 C 7,8 C 7,2 C 96 % 1021,5 hPa 0,0 l/m 0 min 2 min 0 W/m 19,3 km/h (3 Bft) 100,00 %
22.02.2020 20:46 9,3 C 7,8 C 7,8 C 96 % 1021,5 hPa 0,0 l/m 0 min 2 min 0 W/m 29,0 km/h (5 Bft) 100,00 %
22.02.2020 20:48 9,3 C 7,8 C 7,8 C 96 % 1021,5 hPa 0,0 l/m 0 min 2 min 0 W/m 19,3 km/h (3 Bft) 100,00 %
22.02.2020 20:50 9,3 C 7,8 C 7,8 C 96 % 1021,5 hPa 0,2 l/m 0 min 2 min 0 W/m 16,1 km/h (3 Bft) 100,00 %
22.02.2020 20:52 9,3 C 7,8 C 7,8 C 96 % 1021,5 hPa 0,2 l/m 0 min 2 min 0 W/m 22,5 km/h (4 Bft) 100,00 %
22.02.2020 20:54 9,3 C 7,8 C 7,8 C 96 % 1021,4 hPa 0,0 l/m 0 min 2 min 0 W/m 25,7 km/h (4 Bft) 100,00 %
22.02.2020 20:56 9,3 C 7,8 C 7,8 C 96 % 1021,4 hPa 0,0 l/m 0 min 2 min 0 W/m 16,1 km/h (3 Bft) 97,87 %
22.02.2020 20:58 9,3 C 7,8 C 7,8 C 96 % 1021,5 hPa 0,0 l/m 0 min 2 min 0 W/m 25,7 km/h (4 Bft) 100,00 %
22.02.2020 21:00 9,3 C 7,8 C 7,8 C 96 % 1021,5 hPa 0,2 l/m 0 min 2 min 0 W/m 25,7 km/h (4 Bft) 100,00 %
22.02.2020 21:02 9,3 C 7,8 C 7,8 C 96 % 1021,4 hPa 0,2 l/m 0 min 2 min 0 W/m 19,3 km/h (3 Bft) 100,00 %
22.02.2020 21:04 9,3 C 7,8 C 7,8 C 97 % 1021,5 hPa 0,0 l/m 0 min 2 min 0 W/m 19,3 km/h (3 Bft) 97,83 %
22.02.2020 21:06 9,3 C 7,8 C 7,8 C 97 % 1021,6 hPa 0,0 l/m 0 min 2 min 0 W/m 16,1 km/h (3 Bft) 100,00 %
22.02.2020 21:08 9,3 C 7,8 C 7,8 C 97 % 1021,5 hPa 0,2 l/m 0 min 2 min 0 W/m 12,9 km/h (3 Bft) 100,00 %
22.02.2020 21:10 9,3 C 7,8 C 7,8 C 97 % 1021,5 hPa 0,2 l/m 0 min 2 min 0 W/m 12,9 km/h (3 Bft) 100,00 %
22.02.2020 21:12 9,3 C 7,8 C 7,8 C 97 % 1021,4 hPa 0,0 l/m 0 min 2 min 0 W/m 12,9 km/h (3 Bft) 95,74 %
22.02.2020 21:14 9,3 C 7,8 C 7,8 C 97 % 1021,5 hPa 0,2 l/m 0 min 2 min 0 W/m 12,9 km/h (3 Bft) 95,74 %
22.02.2020 21:16 9,3 C 7,8 C 7,8 C 97 % 1021,4 hPa 0,0 l/m 0 min 2 min 0 W/m 22,5 km/h (4 Bft) 100,00 %
22.02.2020 21:18 9,3 C 7,8 C 7,8 C 97 % 1021,5 hPa 0,0 l/m 0 min 2 min 0 W/m 19,3 km/h (3 Bft) 97,87 %
22.02.2020 21:20 9,3 C 7,8 C 7,8 C 97 % 1021,4 hPa 0,2 l/m 0 min 2 min 0 W/m 12,9 km/h (3 Bft) 100,00 %
22.02.2020 21:22 9,3 C 7,8 C 7,8 C 97 % 1021,5 hPa 0,0 l/m 0 min 2 min 0 W/m 19,3 km/h (3 Bft) 97,87 %
22.02.2020 21:24 9,3 C 7,8 C 7,8 C 97 % 1021,4 hPa 0,0 l/m 0 min 2 min 0 W/m 12,9 km/h (3 Bft) 95,74 %
22.02.2020 21:26 9,3 C 7,8 C 7,8 C 97 % 1021,5 hPa 0,0 l/m 0 min 2 min 0 W/m 12,9 km/h (3 Bft) 95,65 %
22.02.2020 21:28 9,3 C 7,8 C 7,8 C 97 % 1021,5 hPa 0,0 l/m 0 min 2 min 0 W/m 12,9 km/h (3 Bft) 97,87 %
22.02.2020 21:30 9,3 C 7,8 C 7,8 C 97 % 1021,5 hPa 0,0 l/m 0 min 2 min 0 W/m 22,5 km/h (4 Bft) 93,62 %
22.02.2020 21:32 9,3 C 8,3 C 7,8 C 97 % 1021,5 hPa 0,0 l/m 0 min 2 min 0 W/m 35,4 km/h (5 Bft) 91,49 %
22.02.2020 21:34 9,3 C 8,3 C 7,8 C 97 % 1021,5 hPa 0,0 l/m 0 min 2 min 0 W/m 12,9 km/h (3 Bft) 95,74 %
22.02.2020 21:36 9,3 C 8,3 C 7,8 C 97 % 1021,5 hPa 0,2 l/m 0 min 2 min 0 W/m 32,2 km/h (5 Bft) 95,74 %
22.02.2020 21:38 9,3 C 8,3 C 7,8 C 97 % 1021,5 hPa 0,0 l/m 0 min 2 min 0 W/m 16,1 km/h (3 Bft) 95,74 %
22.02.2020 21:40 9,3 C 8,3 C 7,8 C 97 % 1021,4 hPa 0,0 l/m 0 min 2 min 0 W/m 19,3 km/h (3 Bft) 95,65 %
22.02.2020 21:42 9,3 C 8,3 C 7,8 C 97 % 1021,4 hPa 0,2 l/m 0 min 2 min 0 W/m 16,1 km/h (3 Bft) 97,87 %
22.02.2020 21:44 9,3 C 8,3 C 7,8 C 97 % 1021,4 hPa 0,0 l/m 0 min 2 min 0 W/m 19,3 km/h (3 Bft) 95,74 %
22.02.2020 21:46 9,3 C 8,3 C 7,8 C 97 % 1021,4 hPa 0,0 l/m 0 min 2 min 0 W/m 19,3 km/h (3 Bft) 95,74 %
22.02.2020 21:48 9,3 C 8,3 C 7,8 C 97 % 1021,3 hPa 0,0 l/m 0 min 2 min 0 W/m 16,1 km/h (3 Bft) 95,74 %
22.02.2020 21:50 9,3 C 8,3 C 7,8 C 97 % 1021,3 hPa 0,0 l/m 0 min 2 min 0 W/m 22,5 km/h (4 Bft) 93,48 %
22.02.2020 21:52 9,3 C 8,3 C 7,8 C 97 % 1021,3 hPa 0,0 l/m 0 min 2 min 0 W/m 25,7 km/h (4 Bft) 95,74 %
22.02.2020 21:54 9,3 C 8,3 C 7,8 C 97 % 1021,2 hPa 0,0 l/m 0 min 2 min 0 W/m 19,3 km/h (3 Bft) 95,74 %
22.02.2020 21:56 9,3 C 8,3 C 7,8 C 97 % 1021,4 hPa 0,0 l/m 0 min 2 min 0 W/m 41,8 km/h (6 Bft) 93,62 %
22.02.2020 21:58 9,3 C 8,3 C 7,8 C 97 % 1021,4 hPa 0,0 l/m 0 min 2 min 0 W/m 19,3 km/h (3 Bft) 95,74 %
22.02.2020 22:00 9,3 C 8,3 C 7,8 C 97 % 1021,4 hPa 0,0 l/m 0 min 2 min 0 W/m 19,3 km/h (3 Bft) 95,74 %
22.02.2020 22:02 9,3 C 8,3 C 7,8 C 97 % 1021,5 hPa 0,0 l/m 0 min 2 min 0 W/m 29,0 km/h (5 Bft) 95,65 %
22.02.2020 22:04 9,3 C 8,3 C 7,8 C 97 % 1021,5 hPa 0,0 l/m 0 min 2 min 0 W/m 16,1 km/h (3 Bft) 95,74 %
22.02.2020 22:06 9,3 C 8,3 C 7,8 C 97 % 1021,5 hPa 0,0 l/m 0 min 2 min 0 W/m 12,9 km/h (3 Bft) 93,62 %
22.02.2020 22:08 9,3 C 7,8 C 7,8 C 97 % 1021,5 hPa 0,0 l/m 0 min 2 min 0 W/m 16,1 km/h (3 Bft) 93,62 %
22.02.2020 22:10 9,3 C 7,8 C 7,8 C 97 % 1021,6 hPa 0,0 l/m 0 min 2 min 0 W/m 25,7 km/h (4 Bft) 95,74 %
22.02.2020 22:12 9,3 C 7,8 C 7,8 C 97 % 1021,6 hPa 0,0 l/m 0 min 2 min 0 W/m 19,3 km/h (3 Bft) 95,74 %
22.02.2020 22:14 9,3 C 7,8 C 7,8 C 97 % 1021,6 hPa 0,0 l/m 0 min 2 min 0 W/m 19,3 km/h (3 Bft) 100,00 %
22.02.2020 22:16 9,3 C 8,3 C 7,8 C 97 % 1021,6 hPa 0,0 l/m 0 min 2 min 0 W/m 22,5 km/h (4 Bft) 97,87 %
22.02.2020 22:18 9,3 C 8,3 C 7,8 C 97 % 1021,6 hPa 0,0 l/m 0 min 2 min 0 W/m 32,2 km/h (5 Bft) 100,00 %
22.02.2020 22:20 9,3 C 8,3 C 7,8 C 97 % 1021,6 hPa 0,0 l/m 0 min 2 min 0 W/m 29,0 km/h (5 Bft) 100,00 %
22.02.2020 22:22 9,3 C 8,3 C 7,8 C 97 % 1021,6 hPa 0,0 l/m 0 min 2 min 0 W/m 19,3 km/h (3 Bft) 97,87 %
22.02.2020 22:24 9,3 C 8,3 C 7,8 C 97 % 1021,6 hPa 0,0 l/m 0 min 2 min 0 W/m 16,1 km/h (3 Bft) 100,00 %
22.02.2020 22:26 9,3 C 8,3 C 7,8 C 97 % 1021,6 hPa 0,0 l/m 0 min 0 min 0 W/m 12,9 km/h (3 Bft) 93,62 %
22.02.2020 22:28 9,3 C 8,3 C 7,8 C 97 % 1021,6 hPa 0,0 l/m 0 min 0 min 0 W/m 25,7 km/h (4 Bft) 100,00 %
22.02.2020 22:30 9,3 C 8,3 C 7,8 C 97 % 1021,5 hPa 0,0 l/m 0 min 0 min 0 W/m 19,3 km/h (3 Bft) 97,87 %
22.02.2020 22:32 9,3 C 8,3 C 7,8 C 97 % 1021,7 hPa 0,0 l/m 0 min 0 min 0 W/m 25,7 km/h (4 Bft) 100,00 %
22.02.2020 22:34 9,3 C 8,3 C 7,8 C 97 % 1021,5 hPa 0,0 l/m 0 min 0 min 0 W/m 22,5 km/h (4 Bft) 97,87 %
22.02.2020 22:36 9,3 C 8,3 C 7,8 C 97 % 1021,6 hPa 0,0 l/m 0 min 2 min 0 W/m 25,7 km/h (4 Bft) 97,87 %
22.02.2020 22:38 9,3 C 8,3 C 7,8 C 97 % 1021,6 hPa 0,0 l/m 0 min 0 min 0 W/m 16,1 km/h (3 Bft) 97,83 %
22.02.2020 22:40 9,3 C 8,3 C 7,8 C 97 % 1021,6 hPa 0,0 l/m 0 min 0 min 0 W/m 22,5 km/h (4 Bft) 97,87 %
22.02.2020 22:42 9,3 C 8,3 C 7,8 C 97 % 1021,5 hPa 0,0 l/m 0 min 2 min 0 W/m 16,1 km/h (3 Bft) 97,87 %
22.02.2020 22:44 9,3 C 8,3 C 7,8 C 97 % 1021,6 hPa 0,0 l/m 0 min 0 min 0 W/m 19,3 km/h (3 Bft) 97,87 %
22.02.2020 22:46 9,3 C 8,3 C 7,8 C 97 % 1021,6 hPa 0,0 l/m 0 min 0 min 0 W/m 12,9 km/h (3 Bft) 97,87 %
22.02.2020 22:48 9,3 C 7,8 C 7,8 C 97 % 1021,7 hPa 0,0 l/m 0 min 2 min 0 W/m 29,0 km/h (5 Bft) 97,83 %
22.02.2020 22:50 9,3 C 7,8 C 7,8 C 97 % 1021,7 hPa 0,0 l/m 0 min 2 min 0 W/m 12,9 km/h (3 Bft) 52,38 %
22.02.2020 22:52 9,3 C 7,8 C 7,8 C 97 % 1021,8 hPa 0,0 l/m 0 min 2 min 0 W/m 22,5 km/h (4 Bft) 95,74 %
22.02.2020 22:54 9,3 C 7,8 C 7,2 C 97 % 1021,7 hPa 0,0 l/m 0 min 2 min 0 W/m 22,5 km/h (4 Bft) 97,87 %
22.02.2020 22:56 9,3 C 7,8 C 7,2 C 97 % 1021,6 hPa 0,0 l/m 0 min 2 min 0 W/m 22,5 km/h (4 Bft) 97,87 %
22.02.2020 22:58 9,3 C 7,8 C 7,2 C 97 % 1021,5 hPa 0,0 l/m 0 min 2 min 0 W/m 12,9 km/h (3 Bft) 97,87 %
22.02.2020 23:00 9,3 C 7,8 C 7,2 C 97 % 1021,6 hPa 0,2 l/m 0 min 2 min 0 W/m 19,3 km/h (3 Bft) 97,83 %
22.02.2020 23:02 9,2 C 7,8 C 7,2 C 97 % 1021,7 hPa 0,0 l/m 0 min 2 min 0 W/m 22,5 km/h (4 Bft) 95,74 %
22.02.2020 23:04 9,2 C 7,8 C 7,2 C 97 % 1021,7 hPa 0,0 l/m 0 min 2 min 0 W/m 22,5 km/h (4 Bft) 97,87 %
22.02.2020 23:06 9,2 C 7,8 C 7,2 C 97 % 1021,6 hPa 0,0 l/m 0 min 2 min 0 W/m 25,7 km/h (4 Bft) 97,87 %
22.02.2020 23:08 9,2 C 7,8 C 7,2 C 97 % 1021,6 hPa 0,0 l/m 0 min 2 min 0 W/m 25,7 km/h (4 Bft) 97,87 %
22.02.2020 23:10 9,2 C 7,8 C 7,2 C 97 % 1021,5 hPa 0,0 l/m 0 min 2 min 0 W/m 25,7 km/h (4 Bft) 97,87 %
22.02.2020 23:12 9,2 C 7,8 C 7,2 C 97 % 1021,4 hPa 0,0 l/m 0 min 2 min 0 W/m 25,7 km/h (4 Bft) 95,65 %
22.02.2020 23:14 9,2 C 7,8 C 7,2 C 97 % 1021,4 hPa 0,0 l/m 0 min 2 min 0 W/m 16,1 km/h (3 Bft) 95,74 %
22.02.2020 23:16 9,2 C 7,8 C 7,2 C 97 % 1021,5 hPa 0,0 l/m 0 min 2 min 0 W/m 16,1 km/h (3 Bft) 95,74 %
22.02.2020 23:18 9,1 C 7,8 C 7,2 C 97 % 1021,6 hPa 0,0 l/m 0 min 2 min 0 W/m 19,3 km/h (3 Bft) 97,87 %
22.02.2020 23:20 9,1 C 7,8 C 7,2 C 97 % 1021,7 hPa 0,0 l/m 0 min 2 min 0 W/m 19,3 km/h (3 Bft) 97,87 %
22.02.2020 23:22 9,1 C 7,8 C 7,2 C 97 % 1021,7 hPa 0,0 l/m 0 min 2 min 0 W/m 41,8 km/h (6 Bft) 97,87 %
22.02.2020 23:24 9,1 C 7,8 C 7,2 C 97 % 1021,8 hPa 0,0 l/m 0 min 2 min 0 W/m 19,3 km/h (3 Bft) 97,83 %
22.02.2020 23:26 9,1 C 7,8 C 7,2 C 97 % 1021,8 hPa 0,0 l/m 0 min 0 min 0 W/m 22,5 km/h (4 Bft) 95,74 %
22.02.2020 23:28 9,1 C 7,8 C 7,2 C 97 % 1021,7 hPa 0,0 l/m 0 min 0 min 0 W/m 22,5 km/h (4 Bft) 97,87 %
22.02.2020 23:30 9,1 C 7,8 C 7,2 C 97 % 1021,7 hPa 0,0 l/m 0 min 0 min 0 W/m 32,2 km/h (5 Bft) 97,87 %
22.02.2020 23:32 9,1 C 7,8 C 7,2 C 97 % 1021,8 hPa 0,0 l/m 0 min 0 min 0 W/m 19,3 km/h (3 Bft) 100,00 %
22.02.2020 23:34 9,1 C 7,8 C 7,2 C 97 % 1021,7 hPa 0,0 l/m 0 min 0 min 0 W/m 25,7 km/h (4 Bft) 100,00 %
22.02.2020 23:36 9,1 C 7,8 C 7,2 C 97 % 1021,7 hPa 0,0 l/m 0 min 0 min 0 W/m 22,5 km/h (4 Bft) 97,83 %
22.02.2020 23:38 9,1 C 7,8 C 7,2 C 97 % 1021,7 hPa 0,0 l/m 0 min 0 min 0 W/m 12,9 km/h (3 Bft) 100,00 %
22.02.2020 23:40 9,1 C 7,8 C 7,2 C 97 % 1021,7 hPa 0,0 l/m 0 min 0 min 0 W/m 16,1 km/h (3 Bft) 100,00 %
22.02.2020 23:42 9,1 C 7,8 C 7,2 C 97 % 1021,8 hPa 0,0 l/m 0 min 2 min 0 W/m 16,1 km/h (3 Bft) 100,00 %
22.02.2020 23:44 9,1 C 7,8 C 7,2 C 97 % 1021,7 hPa 0,0 l/m 0 min 0 min 0 W/m 19,3 km/h (3 Bft) 100,00 %
22.02.2020 23:46 9,1 C 7,8 C 7,2 C 97 % 1021,7 hPa 0,0 l/m 0 min 0 min 0 W/m 16,1 km/h (3 Bft) 100,00 %
22.02.2020 23:48 9,1 C 7,8 C 7,2 C 97 % 1021,8 hPa 0,0 l/m 0 min 0 min 0 W/m 16,1 km/h (3 Bft) 97,87 %
22.02.2020 23:50 9,1 C 7,8 C 7,2 C 97 % 1021,9 hPa 0,0 l/m 0 min 0 min 0 W/m 25,7 km/h (4 Bft) 100,00 %
22.02.2020 23:52 9,1 C 7,8 C 7,2 C 97 % 1021,7 hPa 0,0 l/m 0 min 0 min 0 W/m 25,7 km/h (4 Bft) 100,00 %
22.02.2020 23:54 9,2 C 7,8 C 7,2 C 97 % 1021,6 hPa 0,0 l/m 0 min 0 min 0 W/m 12,9 km/h (3 Bft) 100,00 %
22.02.2020 23:56 9,2 C 7,8 C 7,2 C 97 % 1021,6 hPa 0,0 l/m 0 min 0 min 0 W/m 16,1 km/h (3 Bft) 100,00 %
22.02.2020 23:58 9,2 C 7,8 C 7,2 C 97 % 1021,6 hPa 0,0 l/m 0 min 0 min 0 W/m 22,5 km/h (4 Bft) 100,00 %
_ Min-Zeit 04:26 03:58 03:56 09:42 12:04 - - - - 19:34 09:52
Minimum _ 5,9 C 5,0 C 4,4 C 60 % 1019,1 hPa - - - - 12,9 km/h (3 Bft) 31,03 %
_ Max-Zeit 15:56 11:42 11:44 21:04 00:24 19:04 08:34 12:08 11:56 09:36 00:24
Maximum _ 9,8 C 9,4 C 8,9 C 97 % 1024,6 hPa 0,2 l/m 2 min 4 min 226 W/m 61,2 km/h
O-SO (7 Bft)
100,00 %
Durchschnitt _ 8,4 C 7,7 C 7,1 C 81 % 1021,0 hPa #2,8 l/m #10 min. #4:48 h 72 W/m 28,4 km/h (4 Bft) 97,05 %
© 2020 W. Hausmann